GFSMW_sfc_thetae_000.txt.gz
Theta_e
309 308 307 307 306 306 305 305 305 306 306 305 305 306 306 307 309 309 308 308 309 308 309 308 307 308 306 306 305 304 304 304 307 305 309 314 321 323 321 322 325 322 317
306 306 307 307 306 306 306 305 305 306 306 306 306 307 306 306 308 308 308 308 308 308 307 306 305 306 305 305 305 305 302 302 304 301 300 305 314 319 319 321 322 323 321
305 305 305 306 307 306 307 306 305 305 306 306 305 305 305 305 304 305 306 307 308 308 309 307 307 306 306 304 305 304 303 300 301 302 301 296 300 303 313 319 319 320 319
304 303 305 305 306 307 308 306 306 305 305 306 304 304 302 301 303 304 305 306 307 308 308 308 308 308 307 305 304 303 304 302 300 301 301 304 300 295 296 306 309 317 317
304 304 304 305 306 307 308 307 305 305 304 305 305 304 303 303 304 304 304 305 306 306 306 307 307 308 307 306 306 305 304 303 301 300 300 300 299 299 298 294 300 307 310
305 305 304 304 305 307 307 307 305 304 304 304 304 304 303 303 301 302 301 301 302 302 303 303 304 304 304 304 304 305 304 304 302 301 300 298 296 296 296 297 298 297 301
305 306 305 303 304 305 305 304 303 302 303 303 303 303 303 302 300 299 299 298 298 298 299 300 299 299 300 300 300 301 301 302 301 301 300 300 299 299 297 295 294 294 299
307 306 305 304 304 304 304 304 302 301 302 301 301 301 300 299 299 296 298 297 296 295 297 296 297 297 297 298 298 297 298 299 301 301 301 300 299 298 298 295 294 292 294
306 305 305 304 304 304 304 304 302 301 300 300 299 298 298 296 295 296 296 296 296 295 295 296 295 296 296 296 297 296 297 298 300 301 301 301 302 300 298 298 297 293 289
306 306 306 306 305 305 304 304 302 299 298 298 297 296 295 295 295 295 295 295 295 295 294 294 294 294 294 295 295 295 296 296 298 298 298 299 300 299 299 297 297 297 294
306 306 306 307 307 304 301 299 298 298 296 296 295 295 294 294 294 294 294 294 294 293 293 293 293 292 292 293 293 293 294 293 294 296 297 298 299 299 298 298 296 295 295
306 306 306 306 303 299 298 297 297 296 296 295 294 294 294 293 293 293 293 294 292 293 292 292 291 291 291 291 291 291 292 291 292 293 294 294 296 297 298 298 295 295 296
305 305 306 303 300 298 297 295 296 295 295 294 293 293 292 293 293 293 293 293 292 292 291 290 289 289 289 289 290 290 290 291 291 292 292 293 293 294 296 296 295 295 294
303 304 305 302 297 296 296 294 294 295 294 293 292 292 292 292 293 292 292 292 291 289 289 289 289 289 288 288 289 289 289 289 288 289 290 290 291 292 292 293 294 294 294
302 303 301 299 296 295 294 293 294 294 294 292 292 292 293 293 292 291 291 290 289 288 288 287 288 288 288 287 288 287 286 285 285 287 287 288 289 289 290 291 292 293 293
302 300 299 296 294 293 293 294 294 295 294 293 292 292 291 291 290 290 289 288 287 287 287 287 287 287 286 286 285 284 283 283 283 284 286 287 288 288 287 287 288 289 290
297 299 296 294 293 293 295 296 296 295 293 291 291 290 290 289 289 288 287 286 286 286 286 286 286 286 286 285 283 283 283 283 284 284 285 286 287 287 287 287 286 286 287
296 298 295 292 293 296 297 296 293 292 291 290 289 289 289 288 287 286 285 285 285 285 285 285 286 285 284 283 283 282 283 284 284 284 285 285 286 287 287 287 287 288 290
296 294 293 295 296 297 297 294 291 291 289 288 288 288 287 286 285 284 284 284 284 284 285 285 284 283 283 283 282 282 283 283 283 284 285 285 285 286 286 286 285 286 288
299 293 294 295 294 296 295 290 290 289 288 288 287 287 287 285 284 283 283 284 284 284 284 283 283 282 283 282 282 282 283 282 283 284 286 284 285 285 285 285 285 284 286
298 294 292 292 295 295 290 289 289 288 287 287 287 286 285 284 283 283 284 283 284 283 282 282 283 283 283 284 283 284 283 284 284 284 286 288 285 285 285 285 286 286 287
291 291 293 293 294 294 291 289 288 287 286 286 286 285 284 283 282 283 283 283 283 282 281 282 283 286 286 286 286 285 284 284 284 284 285 286 284 283 285 284 284 284 285
292 294 293 293 294 289 289 287 287 286 286 285 285 284 283 282 282 282 282 282 282 280 280 281 282 284 286 287 285 284 284 283 282 284 283 281 282 282 283 285 284 284 286
293 293 293 291 289 288 287 287 286 285 285 284 283 283 281 280 282 282 282 282 280 279 279 280 282 283 284 284 285 285 285 284 284 283 284 283 282 284 286 286 285 285 286
292 291 290 289 288 288 286 286 285 285 284 282 282 281 280 280 280 281 281 281 281 280 279 280 281 281 281 282 283 282 282 282 282 281 283 283 282 283 285 286 285 286 286
291 291 289 287 287 287 286 286 285 284 283 281 281 280 280 280 281 281 281 282 281 280 280 280 281 281 281 282 283 282 281 281 281 282 281 281 281 280 281 282 284 286 285

GFSMW_sfc_thetae_006.txt.gz
Theta_e
311 314 315 315 313 314 312 311 310 311 310 309 308 307 307 309 310 310 311 310 309 309 308 307 306 307 305 304 304 303 302 301 303 300 299 299 301 302 305 314 320 322 322
309 311 313 314 313 312 312 311 310 310 309 308 308 308 309 308 308 309 309 309 310 309 308 307 305 305 304 304 304 303 300 301 301 299 297 294 296 301 301 303 311 314 318
307 309 312 313 314 312 312 312 310 310 310 309 308 308 308 306 305 306 306 308 309 310 309 308 306 305 305 303 303 302 301 298 300 300 297 293 291 295 298 299 300 302 308
309 309 311 310 313 312 314 313 312 310 310 310 306 306 303 301 303 304 305 306 309 308 308 307 307 305 304 303 303 304 302 300 297 299 302 299 297 293 292 296 298 299 299
309 308 308 310 312 312 313 313 312 311 310 310 308 305 304 304 304 305 305 305 305 306 306 306 306 304 304 303 301 301 301 301 299 298 298 297 298 298 295 292 295 297 298
308 308 309 310 309 312 312 313 312 310 311 310 309 307 303 304 303 303 302 303 303 303 304 303 301 301 300 299 298 298 298 298 297 297 297 296 294 294 294 292 293 294 296
308 308 308 309 309 310 311 313 311 309 310 310 309 307 306 305 303 303 302 301 299 299 299 299 298 298 297 297 297 296 295 295 295 294 294 295 295 296 295 293 291 291 294
309 308 310 311 310 311 311 310 309 308 309 309 308 307 306 304 303 303 301 298 297 298 298 297 297 297 297 296 296 295 294 294 294 293 294 295 295 295 295 293 292 290 291
309 309 310 310 310 310 310 310 309 310 309 309 308 307 305 304 301 302 299 298 298 297 298 297 296 296 296 295 294 293 293 294 293 293 294 294 295 296 295 295 294 291 287
308 309 309 309 309 310 311 311 310 307 306 306 306 303 302 301 299 298 297 297 296 296 296 295 295 294 294 293 293 291 292 292 292 293 292 293 293 294 294 294 294 295 293
308 308 309 309 309 310 308 308 306 304 304 303 303 300 299 299 297 296 296 295 296 295 295 294 293 293 292 292 291 290 291 290 290 291 291 291 292 291 292 293 293 292 292
307 306 307 307 307 307 307 307 304 303 302 301 299 298 297 296 295 295 295 296 295 295 294 293 293 292 291 291 290 289 289 289 288 289 289 289 291 290 291 291 291 291 292
305 306 306 306 306 306 306 306 303 301 300 298 297 296 295 295 294 295 295 294 294 293 293 292 291 291 290 289 289 289 288 288 288 288 288 288 288 288 289 289 289 290 292
305 305 304 304 305 305 305 304 301 300 298 297 296 295 294 295 295 295 294 294 293 292 291 291 290 290 289 289 289 288 287 287 287 288 288 287 287 286 286 287 287 288 287
303 303 303 303 303 303 304 301 300 299 298 296 295 296 297 296 295 294 293 293 292 291 290 289 288 288 288 288 287 286 285 285 285 285 285 285 286 288 287 286 285 285 285
302 302 302 301 302 303 302 298 298 297 297 296 297 297 296 295 293 293 292 291 290 289 288 287 287 286 287 288 288 287 284 283 283 283 283 284 285 285 286 286 286 285 283
301 301 300 301 302 302 299 296 297 299 297 297 295 294 295 293 292 291 290 289 287 287 286 286 286 285 285 288 287 286 283 282 282 281 282 282 284 285 284 285 286 286 286
300 300 301 301 302 299 297 298 298 298 295 294 294 295 293 291 290 290 288 286 285 285 284 284 284 284 284 286 285 285 282 282 282 282 282 282 282 283 284 283 283 284 286
300 300 301 301 298 297 297 296 296 295 294 293 292 291 290 289 289 287 285 285 284 284 284 283 283 282 282 285 285 284 282 282 282 283 283 283 282 284 285 284 283 282 283
300 300 300 298 297 296 297 295 295 294 292 292 291 290 290 288 287 285 284 284 284 282 283 282 283 284 282 284 285 285 284 283 283 284 284 285 285 285 285 283 282 281 282
299 300 297 295 296 297 296 294 292 291 292 290 290 289 289 287 286 285 284 283 282 282 281 280 281 282 282 283 285 285 283 282 281 281 281 282 284 284 285 285 283 282 284
298 297 295 295 296 296 295 292 290 289 289 289 289 288 287 287 286 284 282 282 282 281 278 279 279 281 281 284 283 284 283 283 281 281 282 283 284 284 284 284 284 284 283
295 295 295 294 295 295 292 289 288 289 288 287 287 286 286 285 284 282 281 281 281 280 279 280 278 278 280 281 283 283 283 283 281 282 282 284 284 284 283 284 283 283 281
293 294 294 292 292 292 290 289 289 289 287 286 285 285 283 283 282 282 282 280 279 279 279 278 277 278 279 279 280 281 282 283 283 282 282 281 281 282 282 283 284 283 283
293 293 292 292 291 291 289 289 288 288 285 284 284 284 283 281 281 281 281 280 280 280 278 278 279 278 277 278 282 283 282 282 282 282 282 281 280 280 280 281 284 281 281
293 293 292 290 290 289 289 289 288 286 283 282 283 282 281 281 281 280 280 283 282 282 283 282 281 280 280 282 283 284 284 284 283 281 279 277 278 278 279 279 282 281 280

GFSMW_sfc_thetae_009.txt.gz
Theta_e
304 305 305 304 305 305 304 304 303 304 303 301 301 300 301 303 303 303 306 306 306 305 303 302 303 303 301 301 300 300 298 297 299 297 296 296 297 298 298 302 305 311 308
302 305 305 304 303 303 304 303 304 303 303 302 301 301 301 302 303 304 304 305 305 304 303 302 301 301 300 299 299 300 298 298 298 296 294 291 294 296 298 298 301 300 308
300 302 303 303 303 303 304 305 304 303 303 303 302 301 301 301 300 301 301 303 304 305 304 303 302 301 300 299 299 298 297 295 297 297 295 291 289 293 296 296 297 297 299
302 302 301 299 302 304 304 305 306 305 304 303 300 300 299 298 299 300 300 301 304 305 305 304 303 301 300 299 299 301 299 297 294 296 299 297 296 293 291 294 295 296 297
301 302 302 303 301 304 305 306 306 306 306 303 302 300 299 300 301 301 300 300 302 304 304 302 302 301 300 299 297 295 295 297 296 295 295 294 295 294 293 290 293 295 296
301 302 302 303 304 304 304 305 305 305 306 305 304 302 300 301 299 299 299 300 301 300 299 299 297 297 295 296 294 294 294 292 293 294 294 293 291 291 291 290 291 291 293
300 301 300 302 302 303 302 303 304 304 305 304 304 304 303 301 300 299 298 297 297 296 296 296 296 295 296 296 295 294 294 293 292 291 292 293 293 293 292 290 289 288 291
302 302 301 302 302 302 302 303 304 304 304 304 303 303 303 303 301 301 299 295 295 296 296 295 295 295 295 295 295 294 293 292 291 290 290 292 293 294 293 291 289 287 288
303 302 301 303 302 303 303 303 303 304 304 303 301 301 302 299 298 295 294 295 295 295 295 295 294 294 295 295 294 293 292 291 291 291 291 292 292 293 293 293 292 289 285
302 302 301 302 302 303 302 302 302 302 302 300 299 298 297 295 294 294 294 293 293 294 294 294 294 294 294 294 292 291 291 290 290 291 289 290 291 292 292 292 292 291 289
300 301 301 302 302 302 302 302 303 303 298 298 297 295 294 293 293 294 293 293 294 294 294 294 294 293 292 292 291 290 290 289 288 288 288 288 289 289 289 290 290 289 289
301 301 301 301 301 302 302 303 303 302 297 296 294 294 293 292 291 291 293 293 292 294 293 293 293 292 292 291 289 289 288 288 287 287 286 287 289 287 287 287 287 287 288
301 301 302 302 301 301 302 302 302 297 296 294 292 292 291 291 291 291 291 292 292 292 292 292 291 291 290 289 288 288 287 286 286 286 286 286 286 285 286 286 286 287 288
300 301 301 301 300 300 301 300 298 296 295 293 291 291 290 290 290 291 290 291 292 290 290 290 290 290 288 288 287 287 286 285 285 285 284 284 284 283 283 284 284 285 284
300 300 300 299 299 300 300 298 294 295 294 293 291 292 292 292 293 292 291 291 290 290 289 288 287 286 286 287 285 284 283 282 282 283 283 284 285 287 286 284 283 283 282
299 300 300 300 300 300 298 295 295 296 297 295 293 294 294 293 293 291 291 290 288 288 286 285 284 284 286 287 288 285 282 281 281 280 282 282 284 284 285 285 285 284 281
299 299 299 299 299 298 295 294 296 297 296 295 294 294 294 293 293 291 289 287 285 284 283 283 283 282 282 287 286 286 282 281 280 280 280 281 283 283 282 284 284 284 285
299 298 298 298 295 294 294 295 295 297 295 294 294 294 294 292 288 288 286 284 282 282 281 281 281 281 282 285 286 285 282 281 281 281 281 281 281 282 282 281 281 281 283
298 298 298 295 293 293 293 293 293 294 295 293 293 291 288 287 287 285 282 282 281 280 280 281 280 280 280 284 285 284 282 281 281 282 283 283 283 284 285 283 282 281 282
298 297 294 293 292 292 295 293 294 293 292 288 287 288 287 286 284 282 281 281 280 280 280 281 280 282 280 283 284 284 282 280 280 281 282 283 283 284 285 283 282 281 281
297 294 292 293 294 294 295 292 289 286 287 288 288 287 286 284 283 281 280 279 279 279 275 274 278 279 280 279 283 283 281 281 280 280 281 282 283 284 284 285 283 282 283
292 292 292 293 293 295 293 291 285 287 288 287 286 285 284 284 283 279 279 279 278 275 270 271 274 277 276 281 282 283 282 282 280 280 281 282 283 283 284 284 284 284 283
290 291 290 293 293 293 288 286 286 288 286 285 284 283 283 283 280 279 278 277 277 273 271 274 275 276 279 280 282 281 282 283 282 283 283 284 284 284 282 283 283 283 282
290 290 292 291 290 291 287 286 287 287 285 283 282 282 280 280 279 279 279 275 273 272 276 275 275 277 279 278 279 280 282 283 282 282 282 280 281 280 280 280 282 283 283
290 291 290 291 290 287 286 286 286 285 283 282 281 281 280 278 278 279 277 277 276 274 277 278 278 277 276 278 281 282 282 282 282 280 279 277 276 277 278 279 280 279 277
291 291 291 288 287 287 286 285 285 283 281 280 280 277 276 276 276 275 276 280 281 282 282 282 281 279 280 282 282 282 283 283 283 279 274 274 275 275 277 277 279 280 277

GFSMW_sfc_thetae_012.txt.gz
Theta_e
301 301 302 302 302 302 303 303 302 301 302 300 299 298 300 301 301 303 308 307 306 305 302 301 303 302 300 299 299 298 297 296 297 295 295 295 295 296 297 297 298 301 302
300 302 301 300 302 301 301 301 302 302 301 300 299 299 299 300 301 302 302 306 305 304 302 301 301 300 300 299 299 299 297 296 296 294 292 290 293 294 296 298 297 297 299
299 301 302 300 299 300 301 303 302 301 302 301 300 299 299 299 299 299 300 302 304 304 303 301 301 299 299 298 297 297 296 294 296 295 293 289 287 293 295 295 297 297 296
300 300 299 298 300 301 301 302 304 303 302 302 299 298 299 299 300 300 299 301 303 303 303 302 301 300 299 298 298 298 296 295 293 295 298 295 293 289 288 293 296 297 297
298 299 299 301 301 302 303 304 305 304 305 303 301 299 297 300 301 298 298 298 300 302 303 302 301 300 299 296 294 293 291 294 292 292 291 291 291 291 288 286 289 293 295
298 300 301 300 301 301 302 303 303 304 304 304 303 300 299 300 299 299 297 297 298 297 298 299 297 296 296 295 294 293 292 292 293 292 291 291 288 288 287 286 287 287 291
299 299 299 300 299 299 300 302 302 303 305 303 302 302 301 301 299 299 298 299 297 295 294 294 294 294 294 295 295 295 294 294 293 291 291 291 291 291 290 288 287 287 290
299 299 300 300 301 302 301 303 304 304 304 303 302 302 301 301 301 300 299 296 296 295 295 294 294 295 296 296 296 295 294 294 292 291 290 290 291 291 291 289 287 285 287
299 299 300 300 300 301 301 301 301 301 303 302 301 299 298 299 298 295 294 295 294 295 294 295 295 296 296 296 295 293 292 293 292 291 290 290 291 291 291 291 290 287 283
299 299 300 300 300 300 301 301 301 302 302 301 297 297 295 295 293 292 291 292 293 295 295 296 297 296 295 294 293 292 291 290 290 290 288 289 290 290 290 290 290 289 286
298 299 300 302 303 303 303 302 300 300 300 298 296 294 292 292 291 291 291 292 294 295 295 295 295 294 293 293 292 290 290 288 288 288 288 287 288 287 288 288 288 287 287
298 299 300 300 300 300 299 299 300 299 297 294 294 293 291 291 290 290 291 292 293 293 294 293 293 292 292 291 289 288 288 286 285 286 286 286 287 286 286 285 285 286 286
299 299 299 300 300 299 299 299 299 295 294 293 292 290 290 289 288 290 291 291 292 292 291 291 290 290 290 289 288 287 286 285 285 285 285 285 285 283 283 283 283 284 286
299 299 298 298 298 299 298 299 295 293 293 291 290 289 289 288 289 290 290 290 290 289 289 289 289 289 288 287 286 286 284 283 283 283 283 283 283 282 282 282 282 283 282
298 298 298 298 299 298 298 296 294 295 295 294 294 291 292 291 291 290 289 290 291 290 288 287 286 285 285 285 284 283 282 281 281 282 282 282 283 286 286 284 283 282 281
298 299 299 299 299 298 297 294 296 296 296 293 294 294 294 294 293 293 292 291 290 288 286 284 283 283 284 286 287 285 281 281 281 280 281 281 283 283 284 285 285 284 281
298 298 298 298 297 295 294 293 294 295 295 295 295 294 294 293 292 292 291 288 285 283 282 281 281 281 281 285 286 286 282 281 281 280 280 280 282 283 282 283 284 284 285
298 298 298 297 295 293 292 293 294 293 293 293 293 293 292 292 290 287 285 282 282 281 280 280 281 280 281 285 285 285 282 281 281 281 281 281 281 282 282 282 281 282 282
299 299 297 294 292 291 292 294 291 292 294 293 290 288 287 286 284 282 281 281 280 279 279 280 279 279 280 283 284 283 280 280 281 282 281 282 282 283 285 282 282 282 281
300 297 294 292 291 291 292 291 289 287 286 286 287 287 286 284 282 281 280 280 278 279 279 280 279 280 278 282 283 282 280 278 279 280 281 282 282 283 284 282 281 280 281
294 293 292 291 291 292 294 291 284 285 287 287 287 285 285 283 282 280 279 278 278 278 273 273 276 277 279 278 282 283 281 279 279 279 280 281 283 284 284 284 282 281 283
291 291 291 289 292 294 293 286 283 286 287 286 285 284 283 283 281 279 278 278 277 274 269 269 272 275 275 279 281 282 282 282 280 280 281 282 283 283 283 283 284 284 283
288 289 288 292 293 293 289 285 285 287 285 284 283 282 282 281 280 278 277 276 275 273 271 272 273 274 277 278 281 281 281 282 281 282 282 282 282 281 280 282 282 282 282
288 289 292 291 289 290 285 285 286 286 283 282 281 281 280 280 279 278 278 274 273 272 276 274 274 275 276 277 278 280 281 282 282 280 280 277 278 276 278 280 280 281 282
290 291 288 288 287 286 284 284 284 284 282 281 281 280 279 277 277 278 276 276 276 273 273 273 278 275 274 277 281 280 281 281 281 280 276 275 275 276 277 278 279 281 281
289 288 287 287 287 287 285 284 284 282 280 280 279 277 275 275 275 274 276 280 280 280 281 281 279 277 279 281 280 281 281 281 281 278 275 271 274 274 275 276 276 277 279

GFSMW_sfc_thetae_018.txt.gz
Theta_e
297 297 298 299 299 302 304 305 303 304 304 300 299 298 300 300 300 301 302 305 306 306 305 303 303 303 300 300 298 296 295 295 295 294 293 294 295 295 295 296 297 298 299
296 298 297 298 300 301 303 302 301 300 302 300 298 298 297 298 299 300 301 302 304 306 306 304 302 302 301 298 297 296 295 295 295 293 291 289 292 293 294 295 296 296 298
297 298 298 297 298 299 300 301 300 300 299 299 298 298 297 298 297 298 298 300 302 304 304 305 303 301 302 301 299 297 296 295 294 294 293 288 287 289 292 293 293 295 293
297 297 298 297 297 298 298 298 300 301 301 300 298 297 295 296 298 298 298 300 300 301 303 304 303 301 301 301 299 297 296 294 292 293 296 293 292 285 284 288 292 290 291
295 296 297 298 297 297 298 299 301 301 301 301 300 299 298 298 300 299 299 299 299 298 300 301 303 301 299 300 298 296 295 294 293 290 289 289 290 290 286 284 286 289 290
296 297 298 298 298 298 298 299 300 301 301 301 301 300 297 298 298 298 298 299 298 296 296 297 297 296 293 292 293 294 294 293 294 293 292 291 289 287 287 284 286 285 289
294 296 296 297 299 300 299 300 300 300 302 303 302 299 298 296 295 296 297 297 296 291 290 292 293 294 294 294 294 294 294 295 294 294 293 294 292 292 289 287 286 284 287
295 296 297 297 300 300 299 299 301 301 301 300 299 298 297 296 296 296 296 294 292 290 292 293 294 294 294 294 295 296 295 296 295 293 292 290 291 292 291 289 286 283 284
296 296 297 298 299 300 300 299 299 299 299 298 298 296 294 294 295 294 292 291 290 293 292 293 293 293 295 296 296 294 293 293 292 292 292 292 292 291 291 290 288 286 281
296 298 299 299 300 299 298 298 298 297 298 297 295 294 294 293 292 291 290 290 291 292 292 292 293 293 294 295 294 293 293 292 292 291 290 289 289 289 289 289 288 287 285
296 297 298 299 299 299 298 298 297 297 296 295 292 292 293 293 290 289 290 290 292 292 293 293 293 293 293 292 292 291 291 290 289 288 287 286 287 286 286 287 287 286 285
297 298 298 299 298 298 299 298 297 297 295 292 292 291 291 290 288 288 289 291 292 293 292 293 292 291 290 290 288 287 287 286 285 285 284 284 286 284 285 285 284 284 285
298 299 300 300 298 298 298 298 297 296 293 293 291 291 290 288 286 288 290 291 290 291 292 291 290 290 289 288 286 286 285 284 284 283 283 283 283 282 282 282 282 282 284
300 299 297 297 298 298 298 297 296 293 293 293 292 290 288 289 290 290 291 292 292 292 292 291 289 287 285 285 284 284 283 282 282 282 282 281 281 280 280 280 280 281 280
297 296 297 298 298 299 299 297 295 293 293 293 292 290 290 293 293 293 292 292 292 291 288 286 284 284 283 283 283 282 282 281 281 282 282 281 282 284 283 282 281 281 280
295 296 295 294 295 297 297 294 293 293 294 293 292 292 295 294 291 291 291 290 290 290 285 283 282 281 283 285 285 285 282 282 282 280 280 281 282 282 283 284 284 283 281
294 294 293 295 296 295 293 292 291 292 293 291 293 293 293 292 292 292 290 288 283 282 281 281 281 281 281 284 284 284 281 281 281 280 280 280 281 282 281 282 283 283 283
292 292 294 293 292 292 291 290 291 290 289 291 291 290 290 289 287 284 282 281 280 280 279 280 280 280 280 283 283 283 280 279 279 279 280 279 280 281 281 281 281 281 282
291 292 291 290 289 289 290 289 287 287 287 287 286 285 284 283 282 281 280 280 279 279 279 280 280 279 278 281 282 282 278 277 278 280 280 280 281 282 283 281 279 280 281
293 291 290 289 289 289 289 291 290 285 285 284 284 283 283 282 280 279 279 279 278 279 280 279 278 278 277 280 281 281 278 276 279 280 281 281 281 282 283 282 281 280 281
290 290 288 287 288 289 292 291 289 284 285 285 285 283 282 280 279 278 278 278 277 278 274 272 274 276 277 275 281 281 280 279 279 279 279 280 282 282 282 282 279 279 281
287 287 286 287 289 289 289 286 284 284 285 284 283 282 281 281 279 278 277 277 276 274 269 267 271 273 273 279 279 280 281 281 279 278 280 281 282 281 280 280 280 281 281
287 286 286 287 287 284 284 283 284 286 283 282 281 282 281 280 279 277 276 276 275 272 270 271 273 274 275 275 278 279 281 281 279 281 281 281 280 279 277 279 280 279 279
285 287 286 285 284 285 286 284 283 283 281 280 280 280 278 278 278 277 277 274 273 272 275 273 273 273 274 275 276 278 279 280 280 280 279 277 277 275 276 277 277 277 278
286 287 285 285 284 285 284 282 282 281 281 280 280 279 278 277 277 277 275 276 276 273 273 271 272 273 273 275 279 279 278 279 278 278 276 274 272 272 273 275 275 275 276
286 285 285 284 283 282 282 282 282 281 280 280 279 276 275 274 274 273 274 278 278 279 279 279 277 276 278 279 279 279 279 278 277 275 273 271 270 269 271 271 273 274 274

GFSMW_sfc_thetae_021.txt.gz
Theta_e
305 306 306 308 309 312 314 316 317 318 317 316 314 314 312 312 312 312 312 313 313 314 316 316 316 316 314 314 315 313 310 307 307 305 305 305 307 307 306 307 307 305 306
305 305 306 307 308 310 312 313 313 309 309 311 310 309 308 309 308 309 311 311 311 312 312 313 313 314 313 313 312 310 308 307 307 304 303 300 303 304 305 305 304 306 305
304 305 306 306 307 307 307 307 307 308 308 308 308 309 310 310 309 310 310 311 311 311 310 311 312 312 311 311 313 311 308 307 306 306 303 299 297 302 303 303 303 303 303
303 303 304 305 305 306 308 309 309 309 309 310 309 308 306 305 307 308 308 308 310 310 309 309 309 310 310 309 310 310 309 307 305 304 303 304 302 298 297 298 300 301 298
302 302 303 304 306 307 308 309 309 309 309 308 308 307 305 305 306 306 306 307 308 309 308 307 307 307 308 309 308 308 306 306 302 303 303 301 299 297 296 295 296 295 296
301 303 305 306 306 308 309 309 308 308 308 308 308 307 304 304 303 304 304 305 305 306 305 303 304 304 304 303 303 302 301 301 300 299 299 297 297 295 294 292 293 293 296
302 303 304 305 306 306 306 307 307 306 307 307 306 306 304 303 303 303 303 302 302 303 301 301 302 301 301 301 301 301 300 300 298 295 294 293 292 292 289 289 290 290 294
302 303 304 305 306 306 307 307 306 305 306 306 306 305 304 303 303 302 302 301 300 300 300 300 300 300 301 301 301 297 297 294 292 291 290 289 289 291 292 290 289 287 290
303 304 306 306 306 305 306 306 305 304 305 306 305 303 303 302 301 301 300 299 299 299 300 300 300 300 300 298 297 295 293 294 294 293 292 292 293 293 293 293 292 288 285
303 305 306 306 306 307 307 307 307 305 305 305 303 300 301 301 300 299 297 297 298 299 299 299 299 298 298 298 297 296 295 294 294 294 293 293 294 294 293 292 292 290 287
303 304 304 306 306 306 306 305 305 304 304 303 300 301 300 299 297 295 296 296 298 299 298 296 296 295 294 295 296 295 295 294 293 293 292 291 292 290 290 291 290 289 289
303 303 304 304 304 304 304 304 305 305 304 300 300 300 299 296 294 294 295 297 296 296 296 296 294 293 293 294 293 291 291 290 289 289 289 289 288 289 289 289 288 288 289
303 303 303 303 301 301 302 302 303 303 301 300 299 299 296 294 294 295 295 296 295 294 294 293 292 293 292 290 289 289 288 288 288 288 287 287 287 286 286 286 286 286 286
301 302 301 300 300 299 301 301 301 300 299 299 298 297 294 295 295 294 294 294 294 294 294 293 291 289 288 288 288 288 288 287 287 287 286 286 285 285 284 284 284 284 284
300 299 298 297 298 299 298 298 297 298 298 297 297 296 295 296 295 295 295 295 295 294 294 290 287 287 286 286 286 286 286 286 285 286 286 286 285 285 284 284 284 284 283
297 296 296 297 296 294 294 294 295 296 297 296 296 295 295 295 295 294 295 295 295 293 289 287 286 286 285 284 285 285 285 284 283 283 284 284 284 284 283 283 283 283 282
295 294 295 294 292 293 293 293 295 295 294 294 295 294 293 293 293 291 289 287 287 287 286 285 285 285 285 283 283 283 283 283 283 283 283 283 283 284 284 283 283 283 283
294 295 293 292 293 293 293 294 295 294 293 292 292 291 289 288 288 287 287 286 286 285 284 284 284 284 283 282 282 282 284 283 283 283 283 283 283 282 282 282 282 283 284
295 294 293 293 292 292 294 293 294 293 290 289 288 288 287 287 286 285 285 285 285 284 284 284 283 282 282 281 281 282 283 282 282 283 282 282 282 283 283 283 282 283 284
295 293 293 292 292 293 294 294 293 291 288 288 288 288 286 286 285 284 284 284 284 283 283 282 282 281 281 281 281 282 282 281 281 282 283 283 283 282 283 283 282 280 281
293 292 292 291 292 292 292 290 290 290 288 290 288 286 286 285 284 284 284 283 283 282 281 280 281 281 281 281 281 281 281 280 281 281 281 283 283 283 283 281 281 281 282
291 291 290 291 292 289 288 288 288 289 289 287 286 286 285 284 283 283 283 282 282 281 280 279 280 281 281 280 280 280 280 281 280 280 282 283 281 280 280 280 280 280 281
292 291 290 291 291 290 289 288 289 289 287 286 285 284 284 283 283 282 281 281 281 280 279 279 278 279 280 280 279 280 280 280 280 282 281 280 279 278 279 279 279 279 280
290 290 291 290 289 291 290 289 287 286 285 285 284 284 283 283 283 283 282 281 281 279 278 278 278 278 278 279 280 280 281 280 281 280 281 278 277 277 277 279 279 280 280
290 290 290 290 289 290 289 287 287 286 285 284 283 283 283 282 282 281 281 281 281 279 279 278 278 277 276 277 279 279 279 279 278 279 278 276 275 276 276 277 277 279 279
290 290 290 290 289 288 286 286 286 285 284 283 282 282 282 282 281 280 280 280 279 279 279 278 278 278 278 278 278 278 278 277 277 276 274 273 274 274 274 275 275 277 277

GFSMW_sfc_thetae_024.txt.gz
Theta_e
314 314 315 316 316 319 321 323 323 324 324 324 321 320 318 318 318 318 318 319 319 319 319 318 319 320 319 320 320 319 318 317 317 313 311 311 313 313 312 312 311 311 311
311 312 314 315 316 317 317 318 316 316 316 318 317 316 315 316 317 318 319 319 318 317 316 317 316 317 317 318 318 318 316 316 316 311 309 305 308 311 311 312 311 311 310
309 310 312 314 315 315 315 315 316 316 316 317 317 318 318 317 315 315 314 315 314 314 314 315 315 315 315 314 316 316 315 312 315 315 309 304 302 307 311 310 310 310 309
310 310 311 312 314 315 316 316 315 315 315 316 315 314 312 310 312 312 313 312 313 312 312 312 313 314 313 313 313 313 314 313 310 313 314 312 310 304 302 306 308 309 308
309 309 310 312 313 315 316 316 316 315 315 315 314 313 311 312 312 311 311 311 311 310 310 311 311 311 311 311 312 312 312 311 310 309 309 308 307 308 302 301 302 306 306
309 310 312 313 313 315 315 315 314 313 313 313 312 310 309 309 309 308 306 306 307 307 308 309 309 309 309 308 308 308 307 307 306 304 303 301 298 298 299 299 301 299 300
310 310 310 311 312 313 314 313 313 311 311 311 310 310 309 308 307 306 305 304 304 305 306 307 307 307 307 306 304 302 301 299 297 296 295 293 292 292 290 290 291 292 296
309 309 310 311 312 312 312 313 312 310 310 309 309 310 309 308 307 306 305 304 304 304 306 306 305 304 304 302 301 302 297 294 293 292 291 291 291 292 291 290 289 289 291
307 308 310 311 312 312 312 312 311 310 310 309 310 309 308 307 306 305 304 303 304 303 304 304 303 303 301 301 301 299 298 297 297 297 296 295 295 294 294 293 292 289 286
307 309 309 310 310 311 312 312 309 308 309 309 310 307 307 307 305 304 301 302 303 303 301 301 299 297 297 296 298 297 297 296 296 296 295 294 295 294 294 293 293 291 289
307 307 308 309 310 310 309 307 307 308 308 309 307 307 306 305 303 301 301 301 301 299 297 297 295 294 294 295 295 295 295 294 294 294 293 293 294 293 293 293 292 291 290
306 307 307 308 307 307 305 306 307 306 305 305 305 304 304 303 301 300 300 300 298 298 296 294 294 295 295 295 295 294 293 292 292 292 292 291 290 291 292 291 291 291 291
306 306 307 306 305 303 304 304 302 301 301 302 302 302 302 300 299 299 298 297 297 297 297 297 296 295 294 293 293 292 292 292 291 291 290 290 290 290 290 290 289 289 289
305 305 305 304 302 302 301 299 299 300 300 301 300 300 299 297 297 298 297 298 298 297 297 296 295 295 293 292 291 290 290 290 290 290 290 289 289 289 288 288 288 287 287
303 303 301 300 301 298 297 298 298 299 300 299 298 297 300 297 296 295 295 297 297 296 296 294 293 292 291 289 288 288 288 288 288 288 288 288 288 286 286 286 286 287 286
301 299 297 299 297 296 296 296 297 298 299 298 297 296 297 296 296 297 295 294 293 292 292 291 291 290 289 285 284 285 286 286 286 286 287 287 287 287 286 285 285 284 283
298 296 298 297 296 296 296 296 297 298 298 296 295 295 294 294 293 293 292 292 291 291 290 290 290 289 289 284 283 283 285 286 286 287 286 286 286 286 285 284 284 284 283
293 296 298 297 296 296 296 297 297 296 296 294 294 293 293 292 292 291 291 291 290 290 289 289 288 288 287 284 283 282 285 286 286 286 286 285 284 284 283 283 283 284 284
296 299 298 297 296 296 296 295 295 295 295 293 292 292 292 291 290 290 289 289 289 288 288 287 287 286 286 284 282 282 284 284 284 283 284 284 284 284 284 284 283 284 285
298 298 297 297 296 296 295 294 293 292 292 292 292 292 291 290 289 289 288 288 288 287 287 285 286 284 284 283 282 282 283 281 282 283 284 284 284 283 283 283 283 282 282
297 299 298 296 296 296 294 292 292 291 292 293 292 292 291 290 289 288 288 287 287 286 285 284 283 283 283 283 282 281 281 281 280 281 282 284 283 282 281 281 282 281 282
295 296 296 296 296 296 294 292 291 293 293 293 291 291 290 288 287 288 287 287 286 284 284 282 283 284 284 282 281 281 281 281 281 281 283 284 281 280 280 280 281 280 280
295 296 295 295 295 296 295 292 292 293 292 291 290 289 288 288 288 287 286 285 284 282 281 281 280 281 282 282 281 280 281 280 281 282 281 281 280 279 280 280 279 280 282
293 293 293 293 293 295 295 294 294 292 291 289 289 288 287 286 288 287 286 284 282 281 280 280 279 280 280 281 280 281 281 280 281 280 282 280 279 280 280 281 281 282 282
292 292 292 292 293 294 294 294 292 291 289 288 287 287 286 286 286 285 284 283 283 281 280 280 279 278 278 278 279 279 278 279 278 279 280 279 278 278 279 279 280 281 281
292 292 292 292 292 292 293 292 291 289 288 286 286 286 286 286 285 284 283 282 280 279 279 278 278 279 278 278 278 278 277 277 277 278 276 276 275 276 277 278 278 279 279

GFSMW_sfc_thetae_027.txt.gz
Theta_e
319 319 320 321 321 322 322 327 328 328 326 326 322 321 319 320 319 319 321 321 321 320 320 319 319 321 319 321 323 322 321 320 322 318 318 318 319 318 315 317 315 314 314
313 315 317 319 319 319 320 321 321 320 319 319 319 319 319 319 319 321 320 319 319 318 316 316 315 315 315 318 319 320 317 319 321 315 314 309 313 316 316 315 315 316 314
311 313 315 317 319 318 318 318 318 318 318 319 319 318 318 318 316 317 317 317 317 315 315 314 313 314 315 314 316 316 315 313 316 318 313 307 305 310 315 314 314 315 315
312 313 314 315 317 318 319 318 318 317 317 319 317 317 315 314 316 316 315 315 316 313 312 311 312 312 312 313 313 312 315 314 310 313 312 312 311 305 305 310 310 312 311
313 313 313 315 316 318 318 318 317 316 317 317 317 316 314 313 313 313 312 311 311 310 309 310 310 311 310 312 311 311 310 309 308 308 307 306 305 307 300 300 306 307 309
312 313 314 315 315 318 318 318 316 315 315 316 315 313 312 310 309 309 308 308 308 308 308 308 308 309 309 309 308 308 306 305 304 304 302 298 296 297 293 294 298 299 305
312 311 312 313 314 314 316 316 315 314 315 314 313 312 311 310 309 308 307 306 305 304 305 306 307 307 307 305 304 303 302 301 298 297 295 294 292 292 291 290 290 289 294
311 311 311 313 314 314 315 316 314 312 312 313 312 312 311 310 309 309 307 305 304 303 305 306 305 304 302 301 301 300 299 298 295 294 294 295 295 295 293 291 290 289 291
309 310 311 313 312 312 313 314 312 311 311 311 312 311 311 309 308 308 306 304 303 303 305 302 298 297 298 298 297 297 297 298 298 297 296 295 295 295 295 294 293 289 286
309 310 311 311 311 312 312 312 310 309 310 310 309 308 308 308 307 306 303 303 303 303 301 298 297 297 296 296 297 296 296 295 295 296 296 296 296 296 295 293 293 292 289
309 309 310 311 310 310 310 309 309 308 307 305 305 305 305 305 305 303 302 302 301 299 299 299 297 296 297 297 297 297 296 294 294 294 294 293 294 294 293 294 294 293 292
308 307 308 308 308 308 307 307 306 303 302 302 302 302 303 303 302 301 299 300 300 300 299 298 298 297 297 296 295 294 293 293 292 293 293 291 291 291 292 291 291 291 291
307 307 307 306 306 306 305 303 301 300 300 301 301 301 301 301 300 300 300 299 299 298 298 297 297 296 295 294 294 293 292 292 291 291 290 290 290 289 290 290 290 290 289
306 305 305 306 306 304 302 299 299 300 300 301 300 299 300 300 299 299 295 298 298 297 297 297 295 294 293 292 292 292 290 290 290 290 290 289 289 289 289 289 289 288 288
304 304 304 304 302 301 299 299 298 299 300 299 299 298 298 298 299 298 297 297 297 295 294 293 293 293 292 290 290 289 288 287 287 288 289 289 290 288 287 286 286 286 285
304 303 301 299 299 298 298 298 298 298 300 299 298 297 296 295 295 296 295 294 293 293 293 292 291 291 290 285 284 285 286 285 286 286 287 289 289 288 287 287 286 285 283
301 297 296 298 299 299 298 296 297 298 298 297 297 295 295 294 294 294 293 293 292 292 291 291 290 290 290 284 284 284 285 284 285 286 287 286 287 287 287 286 285 285 285
295 294 297 299 299 298 298 298 297 297 297 296 296 295 294 293 293 292 291 291 291 290 290 289 289 289 288 285 283 283 284 285 285 286 285 285 285 286 285 284 284 284 285
294 297 300 299 299 299 299 297 296 295 295 294 294 293 293 292 291 291 290 290 290 289 289 288 288 286 286 286 283 283 283 283 283 283 284 284 284 285 285 284 283 283 285
299 298 298 299 299 299 299 297 295 294 293 293 293 293 292 291 291 290 289 290 289 288 288 287 286 285 284 285 283 283 283 281 282 283 283 283 284 284 284 284 282 281 282
297 298 298 298 298 299 298 296 295 294 294 294 294 293 292 291 291 290 290 289 288 288 287 285 286 285 285 285 284 282 282 282 282 281 282 284 284 282 282 281 281 281 283
296 297 296 296 296 297 296 294 294 295 295 295 293 292 291 291 289 289 289 288 287 286 286 285 285 285 285 284 283 281 281 282 281 280 283 284 282 281 281 280 281 281 281
294 295 294 293 294 295 295 293 295 296 295 293 292 291 291 290 289 288 288 286 286 285 283 282 282 283 283 284 283 281 281 280 281 282 281 281 281 281 281 282 281 280 281
292 293 292 292 292 293 293 293 294 295 294 291 291 290 289 288 288 288 287 285 285 282 281 281 280 281 280 281 281 280 280 280 280 280 280 281 280 281 281 282 282 283 283
291 292 291 292 292 292 292 293 293 294 291 290 289 289 288 288 287 287 286 285 285 283 281 280 279 278 278 279 279 279 278 278 278 278 280 279 278 278 279 280 281 282 282
291 291 291 291 291 292 291 292 293 292 290 287 287 287 287 286 286 285 285 285 282 280 280 279 278 279 278 278 278 278 277 277 277 277 277 276 276 275 277 277 278 280 279

GFSMW_sfc_thetae_030.txt.gz
Theta_e
316 318 320 322 322 325 325 326 324 326 325 325 321 319 318 318 318 319 320 319 319 318 316 315 315 314 313 313 313 312 311 312 314 313 312 312 313 313 313 312 309 309 310
313 315 317 319 318 319 320 320 319 319 318 318 318 317 317 318 318 319 317 318 318 316 314 313 312 312 310 310 310 310 309 309 310 308 308 304 306 309 312 313 311 309 310
311 314 315 316 318 318 318 317 317 318 318 318 317 317 317 317 315 316 316 315 316 315 314 311 310 310 309 307 307 307 306 305 307 307 305 301 299 303 307 308 310 311 311
312 313 314 315 317 318 319 318 318 317 317 318 316 316 314 311 312 312 313 312 312 311 309 309 308 307 308 306 306 307 306 304 302 304 307 304 302 298 298 304 306 310 310
312 312 313 314 315 318 318 318 317 316 317 316 315 313 311 310 310 309 309 308 309 309 308 306 305 305 305 305 305 304 302 302 300 299 298 297 297 299 297 295 297 303 304
311 312 314 315 315 319 318 318 316 315 316 314 314 312 310 309 307 307 306 306 306 305 304 305 304 305 304 302 302 301 301 300 298 296 296 295 293 292 291 290 291 291 296
312 312 311 312 314 315 316 316 315 313 313 313 313 312 310 309 307 307 306 305 303 302 301 303 302 301 300 300 300 300 298 298 296 295 294 294 293 292 291 289 289 289 293
312 312 312 313 313 313 313 313 313 311 310 310 311 311 311 309 307 307 305 303 301 300 301 301 299 298 299 298 298 297 297 297 296 294 294 294 294 294 293 291 289 287 288
311 310 311 312 312 311 312 312 310 309 309 310 310 308 308 307 306 306 304 302 301 302 300 298 297 297 296 297 297 296 295 295 294 294 295 295 295 293 293 293 291 288 284
310 311 311 311 312 312 311 312 309 308 307 306 304 302 303 304 303 303 301 300 300 300 298 298 297 296 295 295 295 295 295 295 293 293 293 293 294 294 294 294 293 291 288
308 309 309 310 310 310 309 307 307 305 302 301 301 301 302 302 302 301 299 299 299 299 298 298 296 296 297 296 294 293 293 293 293 292 292 291 292 291 291 290 291 291 290
308 309 309 308 308 307 306 305 304 300 300 300 300 300 301 301 300 299 299 299 298 298 298 297 297 297 295 295 293 292 292 291 290 290 289 289 290 287 288 288 287 287 288
307 307 307 307 306 305 304 302 300 299 299 299 299 299 299 299 299 298 298 298 297 297 297 296 295 295 295 293 291 290 290 289 287 287 287 287 287 286 286 287 287 287 288
305 305 306 305 305 304 302 300 299 299 299 299 298 298 298 297 297 297 297 296 296 296 295 294 293 292 291 290 290 289 287 286 286 286 286 286 286 285 285 284 283 285 283
304 303 302 302 301 301 300 300 299 298 299 298 298 297 297 296 296 296 296 295 294 294 293 292 291 290 290 287 285 285 284 284 283 284 285 286 288 290 287 285 283 282 281
302 302 300 299 299 299 299 299 298 297 298 297 297 297 296 296 296 295 294 294 293 292 291 289 289 289 289 285 285 284 282 283 282 281 283 285 287 287 288 288 287 285 281
299 298 298 298 299 300 299 297 297 297 297 296 296 297 296 295 294 294 293 291 291 290 288 288 288 287 287 285 285 284 282 281 281 282 282 283 285 285 284 284 285 285 285
297 297 297 298 300 299 298 298 299 297 296 295 294 295 294 293 293 293 291 290 288 287 286 286 287 285 286 287 284 284 281 280 281 281 281 281 281 282 283 282 281 283 283
297 298 299 299 297 298 299 298 297 296 295 294 294 293 293 292 292 290 290 288 287 286 286 286 285 283 283 285 286 283 280 280 279 280 281 281 281 283 285 282 280 281 281
298 297 297 297 297 297 297 295 295 295 295 295 294 294 293 292 291 290 288 287 287 286 286 284 284 285 282 286 285 284 281 277 279 279 281 282 282 283 282 281 280 278 279
296 296 295 294 294 294 294 293 292 292 294 296 295 294 294 292 291 289 288 287 285 284 283 283 283 283 284 282 285 283 279 279 278 278 278 280 282 281 282 282 279 279 281
294 294 292 292 293 293 293 291 291 292 295 295 294 293 292 291 290 288 287 286 284 283 280 279 280 282 283 284 283 282 281 280 277 277 278 280 281 282 281 281 281 282 281
292 292 291 291 292 293 293 290 291 293 293 293 293 292 291 290 289 286 285 283 283 281 279 280 279 280 280 280 282 280 279 279 277 278 279 279 280 281 281 281 282 282 280
291 292 291 290 290 292 292 291 292 292 292 291 291 290 288 288 287 287 285 282 281 280 281 280 277 276 277 277 277 277 277 278 278 277 277 278 280 279 279 280 281 281 281
291 291 290 290 290 291 291 292 292 292 290 289 288 287 287 286 285 284 283 282 282 280 278 277 276 273 273 276 277 277 276 276 277 276 277 277 276 276 276 277 278 279 279
290 290 291 291 291 291 291 291 292 291 288 286 286 286 285 284 283 282 283 284 283 282 282 281 277 275 278 278 278 278 278 278 278 276 275 274 274 273 274 275 275 277 277

GFSMW_sfc_thetae_033.txt.gz
Theta_e
311 313 314 314 315 315 315 314 313 314 314 312 310 309 309 310 311 312 313 313 313 313 311 310 309 308 307 306 306 306 305 305 307 306 307 306 308 308 309 310 308 308 309
310 312 312 312 312 312 311 312 311 311 311 310 309 310 309 310 310 312 313 313 311 311 310 307 306 305 305 305 304 303 301 302 303 301 302 298 302 303 306 306 308 307 308
307 309 310 309 308 309 308 310 310 310 311 311 311 311 310 309 308 307 308 307 307 307 305 304 304 303 303 302 301 301 301 299 301 301 299 296 294 298 302 303 305 305 306
308 309 309 308 309 308 309 309 310 309 311 310 309 307 305 304 305 305 305 304 306 305 304 302 302 302 302 301 301 302 299 299 295 298 299 297 297 293 292 298 299 298 300
306 307 307 309 309 309 308 309 309 309 310 309 308 306 305 305 305 304 304 304 304 303 302 302 301 301 301 299 298 298 298 300 298 296 295 295 292 291 288 287 290 294 296
305 306 308 309 309 309 308 308 308 308 308 307 307 305 304 304 303 303 302 301 301 300 300 301 300 299 298 298 297 296 298 295 295 295 293 292 290 290 289 288 289 289 292
303 304 305 305 306 306 306 307 307 306 306 306 306 305 304 303 301 301 299 298 298 297 298 298 297 296 296 296 296 296 294 294 293 293 292 292 290 292 291 290 289 287 289
305 303 304 304 304 305 305 305 305 305 305 306 304 303 303 302 302 301 300 298 297 296 297 296 296 295 295 295 294 293 294 292 292 291 294 294 294 294 291 290 288 284 286
303 304 304 304 304 304 304 303 303 304 303 300 298 298 299 299 298 298 297 296 297 298 296 295 295 294 294 293 293 292 291 291 291 291 291 291 291 293 293 293 291 287 282
303 304 303 304 304 303 303 302 302 300 298 297 297 297 297 297 297 296 295 296 295 296 296 295 294 293 293 294 292 291 291 291 290 290 289 289 290 291 292 292 291 291 288
302 302 302 304 303 303 301 300 297 296 295 295 296 296 296 297 297 297 296 296 295 294 294 295 296 296 296 296 293 292 291 291 290 289 289 288 289 287 287 288 287 288 289
303 302 302 303 302 301 299 296 295 294 294 295 295 295 295 296 296 295 295 295 294 295 295 297 296 295 294 294 293 290 289 287 285 285 284 285 287 284 285 285 284 284 284
301 301 301 300 299 300 299 295 295 294 295 295 295 294 294 294 294 294 294 294 294 294 293 294 294 293 292 290 288 287 286 285 284 284 284 283 283 283 283 284 283 283 285
301 300 300 298 297 300 299 296 295 294 294 294 294 294 293 293 293 293 293 293 294 293 292 291 291 290 288 287 286 285 283 283 283 283 283 283 283 282 283 284 283 283 281
299 298 296 295 295 296 296 296 294 294 294 293 293 293 293 293 292 292 292 292 291 290 290 289 288 287 286 285 283 282 281 281 281 281 282 282 284 287 287 285 283 281 279
296 296 296 295 295 296 297 295 294 294 294 293 292 293 293 292 292 291 290 290 289 290 288 287 286 284 285 286 285 283 280 280 280 279 280 281 283 284 285 286 285 284 281
295 294 294 294 296 296 298 294 293 294 294 293 294 294 293 293 291 291 291 289 287 285 286 285 284 283 282 286 285 285 280 279 278 278 279 279 281 282 282 283 284 284 285
294 294 294 295 296 296 295 293 294 294 294 294 293 293 292 292 292 292 290 287 285 284 284 283 283 282 284 286 286 286 280 279 279 279 279 278 279 280 281 280 280 281 282
293 294 296 296 293 290 290 290 290 290 291 292 292 292 293 292 292 290 287 285 285 283 283 283 282 281 281 285 286 284 279 279 279 280 279 279 279 281 283 281 278 279 280
295 295 290 289 289 288 289 289 288 288 289 291 292 293 293 292 289 290 287 285 284 284 283 282 282 284 280 284 285 282 275 275 278 278 279 280 280 281 282 280 279 276 277
290 289 288 287 287 288 289 288 287 287 290 291 292 292 291 291 291 287 285 285 282 281 280 279 280 281 282 280 283 282 279 277 277 276 277 278 280 280 281 282 280 279 280
288 288 286 286 287 287 289 286 286 289 290 290 291 291 290 291 289 284 284 282 281 279 273 270 273 276 278 281 281 280 279 279 274 275 276 278 280 281 281 281 282 282 281
287 288 286 287 288 288 288 287 287 288 289 289 288 288 289 288 286 283 281 280 279 276 274 274 272 271 277 275 279 278 278 278 275 276 278 279 280 279 279 280 280 280 280
286 287 287 287 287 289 289 287 289 290 288 287 287 287 285 285 283 283 282 277 275 274 277 274 270 268 274 273 274 275 273 277 276 277 277 277 278 277 277 278 278 279 278
287 287 287 287 288 289 289 289 289 289 286 285 286 285 283 283 281 281 279 279 278 277 273 273 271 266 264 272 278 277 276 276 277 276 276 275 274 274 275 275 276 277 277
287 287 287 287 287 288 288 289 289 287 285 283 284 283 281 280 278 277 278 283 282 282 283 283 275 271 277 279 279 279 279 278 278 275 272 271 272 272 273 273 274 275 275

GFSMW_sfc_thetae_036.txt.gz
Theta_e
309 310 312 312 313 314 313 314 314 314 314 312 311 309 308 308 309 311 313 313 311 309 306 305 305 304 304 303 303 302 301 300 302 300 301 301 303 303 303 304 305 306 308
307 309 309 310 309 311 312 310 309 309 309 309 308 309 308 308 308 309 307 307 305 305 303 302 302 302 301 301 300 299 299 300 300 297 297 295 298 299 300 301 302 301 303
306 307 308 307 307 306 307 308 308 308 308 309 308 307 307 306 304 304 303 304 304 303 301 301 300 300 301 299 299 298 297 296 297 297 296 292 290 292 296 296 297 296 297
307 307 306 306 306 305 306 307 307 308 309 308 306 305 303 302 302 301 301 302 302 301 301 301 300 300 300 298 298 299 297 299 297 297 297 295 295 287 287 292 293 293 294
306 306 306 307 306 307 306 306 307 307 306 306 305 304 303 303 304 303 302 301 300 300 302 301 299 298 298 297 296 295 295 295 293 292 291 290 290 289 286 285 288 291 292
304 305 306 307 306 306 305 305 304 304 305 305 304 303 302 302 301 301 300 299 299 299 299 299 297 296 296 295 295 294 293 292 292 291 290 290 289 289 289 287 287 287 288
303 304 305 305 305 304 304 304 304 303 304 304 303 302 301 300 299 299 297 297 296 296 296 296 295 294 294 294 293 292 291 291 290 289 289 290 292 292 291 289 287 286 289
303 302 303 304 303 303 303 303 302 303 304 300 298 298 298 298 298 298 297 296 296 296 296 295 294 294 294 294 292 291 291 291 289 288 289 291 293 291 291 290 288 285 286
302 303 303 302 301 301 302 301 301 298 297 297 296 296 296 296 296 296 295 295 295 297 295 294 294 293 293 293 291 290 290 289 289 289 289 288 289 289 289 289 290 288 282
304 302 302 303 301 301 299 298 296 295 296 296 295 296 295 297 296 295 294 293 294 294 293 293 293 292 295 295 292 291 291 290 290 291 290 288 288 288 288 290 289 289 286
301 301 302 301 300 298 296 294 295 294 294 296 295 294 294 295 295 294 294 294 293 293 293 294 294 294 292 293 292 291 291 289 287 285 284 284 286 284 284 284 284 283 284
300 300 298 298 297 297 295 294 293 295 294 294 294 294 293 295 294 294 294 293 292 293 293 293 293 292 292 291 289 287 286 284 283 283 283 284 284 282 282 282 281 282 283
299 299 298 296 296 297 297 294 294 293 293 294 293 293 292 293 293 293 293 293 293 292 292 292 291 290 288 286 285 284 283 282 282 282 282 282 282 280 281 281 281 282 284
297 297 295 294 295 296 296 295 294 293 293 293 292 291 291 292 291 292 292 292 292 291 290 290 289 287 285 285 284 283 281 281 281 282 281 281 280 280 280 282 281 282 280
295 295 294 293 294 294 295 296 294 294 293 292 291 291 291 291 292 291 291 293 292 291 290 287 286 285 284 284 282 281 280 280 280 280 280 281 282 283 283 282 282 281 279
294 294 294 294 294 295 295 295 295 293 293 292 292 293 292 292 291 292 291 292 291 291 287 285 285 284 285 286 285 283 280 280 280 278 279 279 281 280 282 283 284 283 280
293 293 293 293 293 293 294 291 291 292 292 292 293 292 292 291 290 290 290 291 289 287 285 285 284 282 282 286 286 286 282 279 278 278 278 279 281 280 280 281 282 282 283
292 292 292 293 293 292 290 289 289 289 288 291 291 291 291 290 290 290 289 287 287 285 284 282 282 281 282 285 286 286 281 279 279 279 279 278 278 278 279 279 280 280 280
292 292 293 293 289 287 287 287 287 286 289 289 290 291 291 290 290 290 289 289 287 283 282 283 281 280 280 284 285 281 277 278 277 279 279 278 277 280 281 280 278 279 279
293 291 289 286 285 286 286 286 285 286 287 289 289 290 291 290 289 288 287 287 283 283 282 282 281 283 279 282 283 281 276 270 276 277 277 279 278 280 280 279 278 277 278
286 287 285 285 285 286 286 285 285 286 288 289 289 291 290 289 291 288 285 282 282 281 280 278 279 280 279 278 281 280 274 275 276 275 275 276 279 281 281 281 279 279 280
286 286 285 285 286 286 286 285 284 286 288 288 288 288 287 288 288 283 282 282 281 279 272 268 272 275 277 280 279 279 279 278 273 274 275 277 280 279 279 279 280 281 280
284 286 284 285 286 287 287 285 287 287 288 287 287 286 286 286 285 282 280 280 279 275 273 272 271 270 276 274 279 278 278 278 275 276 278 279 278 278 277 279 279 278 278
285 285 285 285 285 287 287 287 288 288 287 286 285 284 286 283 283 282 282 278 274 273 277 273 270 267 273 273 274 275 272 276 277 276 276 276 276 276 276 276 277 277 277
285 285 285 285 285 286 286 287 288 289 287 286 284 283 284 283 282 281 278 279 278 276 272 272 271 264 264 271 277 278 276 275 277 271 270 273 273 273 274 274 275 276 276
285 284 285 285 285 285 285 286 288 288 286 284 282 283 281 279 279 278 279 282 282 282 284 283 274 270 276 279 280 279 278 277 276 270 266 269 270 270 272 271 272 273 274

GFSMW_sfc_thetae_039.txt.gz
Theta_e
306 309 310 311 312 314 316 317 317 317 314 312 311 308 306 308 308 307 308 307 307 306 305 304 302 302 301 300 300 300 298 298 299 297 298 299 299 298 296 298 300 302 301
305 307 307 309 310 312 312 310 310 309 309 308 307 308 306 304 304 305 304 303 302 302 301 300 301 303 302 301 299 298 298 298 297 295 294 291 294 295 296 295 297 295 297
304 306 307 307 307 307 305 306 306 306 307 307 306 305 305 304 302 301 300 301 301 301 300 300 300 299 299 298 296 296 295 294 295 295 293 288 286 289 292 292 293 292 293
306 306 305 304 303 303 304 305 306 306 307 306 304 303 301 300 300 300 300 300 300 300 301 300 299 298 297 296 295 298 294 294 292 293 295 292 291 285 285 289 290 291 292
305 305 306 305 304 304 303 304 305 305 305 304 304 302 301 302 302 302 301 300 299 301 301 299 297 296 296 295 294 293 293 293 291 290 289 288 288 287 286 284 286 289 291
304 305 305 306 304 304 303 301 303 302 303 303 303 302 301 301 300 300 299 298 297 297 297 297 295 295 294 293 293 292 291 291 291 290 289 290 288 288 288 286 284 285 287
302 303 304 306 307 305 304 301 301 302 302 301 301 300 299 298 297 297 296 295 294 295 295 295 294 293 293 293 292 291 290 290 288 288 288 289 289 291 291 289 287 286 288
304 305 306 306 305 303 301 300 301 301 298 297 296 296 297 296 296 296 295 295 295 295 295 294 293 293 293 292 292 290 289 289 288 287 288 289 290 290 292 289 288 284 285
302 302 301 300 303 302 299 299 298 296 296 295 295 295 295 295 295 295 294 293 294 296 294 293 292 292 292 292 292 289 288 288 288 288 289 290 289 289 288 288 289 285 280
300 301 300 301 300 298 298 296 294 294 294 294 294 295 294 295 295 294 293 293 293 293 293 292 291 291 291 291 291 289 289 288 287 288 286 285 285 285 284 285 285 284 282
297 297 297 298 299 299 294 293 293 293 292 294 294 293 293 294 294 293 293 293 292 292 291 292 292 292 290 290 289 288 286 284 283 282 282 283 284 283 284 282 282 282 282
297 298 298 297 297 296 294 293 292 292 292 292 293 293 292 292 293 293 293 293 291 291 292 291 291 291 289 288 286 284 283 282 281 281 281 282 283 281 280 280 280 280 280
296 295 295 295 296 296 296 295 294 292 292 291 291 291 291 290 291 292 292 292 291 292 291 292 292 289 288 286 284 283 282 281 281 281 280 280 280 279 279 279 279 280 282
295 295 295 295 295 296 295 294 294 293 292 292 291 290 290 290 290 290 291 291 291 291 291 290 290 289 286 284 283 282 281 281 281 281 280 280 279 279 279 279 280 281 281
293 293 293 293 293 292 293 293 292 292 292 291 290 290 290 290 290 290 290 290 291 290 290 291 288 286 285 284 282 281 281 280 280 280 280 280 281 283 282 280 279 278 280
293 293 293 292 292 292 292 291 289 289 290 289 290 291 290 290 290 289 289 288 288 289 291 287 286 285 284 286 286 284 280 281 280 279 279 279 281 280 282 281 282 281 278
291 292 291 291 291 290 290 286 287 288 288 288 290 290 290 289 289 289 289 287 287 287 286 285 285 282 282 286 286 286 282 280 279 278 278 279 280 280 279 280 281 281 282
291 291 291 289 288 286 286 286 287 286 286 288 289 290 289 289 289 288 287 284 285 284 284 282 282 281 282 285 285 283 278 278 278 278 278 278 277 278 278 279 279 279 280
291 291 289 287 285 285 285 285 285 285 287 287 287 288 289 289 288 288 290 289 288 286 282 282 281 280 280 283 283 280 277 277 276 278 278 277 276 278 281 279 277 278 278
289 285 285 284 284 284 284 284 284 283 285 287 287 288 289 288 287 288 288 285 281 282 282 282 281 282 278 281 281 280 274 268 275 276 277 278 278 279 281 279 277 276 278
285 285 284 283 284 285 285 284 284 284 286 287 288 288 288 287 287 286 282 281 281 282 280 278 279 279 279 277 280 280 273 273 275 275 275 276 279 280 280 280 278 278 279
284 284 284 283 284 285 285 283 283 286 287 287 287 286 286 286 286 286 283 283 280 279 273 268 272 275 276 279 279 280 279 279 272 275 276 277 279 279 278 278 279 279 278
283 284 283 284 285 285 285 284 285 286 286 287 287 285 285 284 283 281 280 280 279 276 273 272 270 270 276 275 278 279 279 278 274 276 277 278 277 277 277 277 278 277 276
283 284 283 283 284 285 285 284 285 287 286 286 286 284 283 284 284 283 282 279 275 272 276 272 270 267 273 273 274 275 274 275 275 273 273 272 275 274 275 275 275 276 275
283 283 283 283 283 284 284 284 285 286 285 285 285 283 282 283 282 281 279 280 278 276 272 272 271 264 264 271 276 279 274 270 274 267 266 268 270 271 272 272 273 274 274
283 283 283 283 283 283 283 284 285 285 285 284 283 282 281 281 280 280 281 282 281 282 283 283 275 270 276 279 280 279 278 277 275 267 263 260 261 267 270 270 270 271 271

GFSMW_sfc_thetae_042.txt.gz
Theta_e
305 307 309 311 315 315 318 321 321 320 318 315 311 307 305 305 303 304 305 304 304 303 301 300 300 300 300 299 300 299 297 298 298 296 296 297 298 297 295 297 298 297 298
304 306 307 308 309 312 315 314 312 311 310 308 307 304 302 301 301 301 301 301 300 300 300 299 299 299 299 298 297 296 295 296 296 293 292 289 292 293 295 294 295 292 294
303 305 307 307 308 306 304 306 307 307 307 306 305 304 303 302 300 299 299 299 300 300 299 299 299 298 297 295 294 294 293 292 294 294 292 287 285 288 291 292 292 292 292
304 304 303 302 302 302 303 304 305 305 305 304 303 301 300 299 299 299 299 298 299 299 300 299 298 296 296 294 293 295 293 292 290 292 294 292 291 286 286 289 290 290 291
302 302 302 303 303 303 302 304 304 304 304 303 303 301 300 300 300 300 299 298 298 299 298 297 295 294 295 294 293 293 292 292 290 290 290 289 288 287 288 285 287 289 290
303 304 303 304 303 303 301 302 304 303 303 302 302 301 300 299 298 298 297 296 295 296 296 296 295 294 294 292 292 291 290 290 290 290 292 290 288 287 288 286 287 287 288
302 303 303 303 305 305 302 302 302 302 302 300 299 298 297 297 295 295 295 295 294 294 295 294 293 292 292 292 291 290 289 289 288 287 287 288 288 289 290 288 286 284 287
302 302 305 304 304 302 301 301 302 299 296 296 296 296 295 295 295 295 295 294 294 294 294 294 293 292 292 291 290 289 289 288 288 287 287 287 288 291 290 289 287 284 285
301 301 300 299 299 299 299 299 297 295 295 295 294 294 294 294 294 294 293 293 293 295 294 293 291 291 291 291 290 289 288 288 287 287 287 287 287 289 288 287 287 284 278
298 298 298 298 298 298 297 294 294 293 293 293 293 294 293 293 294 293 293 292 292 292 292 291 290 291 291 290 290 289 288 287 287 285 283 283 283 283 283 283 285 285 283
295 295 295 296 295 293 292 292 293 293 292 291 292 292 292 292 293 292 292 292 291 291 290 291 291 291 290 290 289 288 286 284 283 282 282 282 283 283 282 282 281 281 281
294 294 294 296 296 297 297 294 294 293 291 290 290 290 291 290 290 291 292 292 291 291 290 291 290 291 290 289 287 285 284 282 282 282 281 281 282 279 279 279 279 279 280
293 293 293 293 295 296 296 296 294 292 291 291 290 290 290 289 288 289 290 291 290 290 290 290 289 289 289 286 285 284 282 282 281 281 280 280 280 278 279 279 279 279 281
293 293 292 292 293 294 294 293 291 290 290 290 289 289 288 288 288 288 289 289 290 289 289 288 289 290 287 285 284 283 282 280 281 281 281 280 279 279 279 279 278 279 279
292 292 292 293 293 292 292 290 289 289 289 288 288 288 288 288 289 289 289 288 288 288 288 288 289 287 285 284 283 282 281 280 280 281 281 281 282 284 283 281 279 278 278
291 291 291 291 290 290 289 287 287 287 287 286 288 289 289 289 288 288 287 287 287 287 289 288 286 284 285 286 286 285 282 282 281 279 280 280 281 280 282 281 281 280 278
291 291 290 290 289 287 287 285 285 286 286 286 288 289 289 288 288 288 287 286 285 285 284 283 283 282 281 285 285 285 280 279 278 277 277 278 279 279 278 279 280 280 281
291 289 289 287 286 284 284 284 285 284 285 287 287 288 287 287 287 287 287 286 287 287 286 282 280 280 282 284 284 282 278 277 277 277 277 277 277 277 278 278 278 279 279
290 290 288 285 283 283 284 284 284 284 284 285 286 286 286 287 286 286 286 286 287 286 283 281 280 280 279 282 282 280 277 276 276 277 277 277 277 278 281 280 278 278 279
289 284 283 283 283 283 284 284 283 283 283 284 285 286 287 286 285 285 286 284 281 281 281 281 281 282 278 281 281 280 274 268 275 276 277 278 278 279 280 278 277 275 278
284 284 284 283 283 284 284 283 282 282 284 286 285 286 288 286 285 284 283 281 281 282 280 278 279 279 279 277 280 280 274 274 276 275 276 277 278 279 279 279 277 277 279
284 284 283 282 283 284 284 282 281 283 285 285 285 286 286 286 285 282 284 283 282 279 273 271 273 275 276 279 279 280 280 279 273 275 276 276 278 278 278 277 278 278 277
283 284 283 283 284 284 283 282 282 284 284 285 285 285 286 284 282 282 280 280 280 277 275 272 270 271 276 275 278 279 279 278 273 275 275 276 276 276 276 276 277 276 275
283 284 283 282 282 283 283 282 283 284 284 284 283 283 285 282 283 283 282 279 275 273 275 272 270 268 273 273 273 275 275 275 275 272 271 271 274 271 273 274 274 274 274
283 283 282 282 282 283 283 283 283 285 283 283 284 282 282 280 281 281 279 280 279 277 274 274 271 265 267 271 275 278 273 268 272 266 265 267 267 269 270 271 272 272 272
282 282 282 282 282 282 282 282 285 285 283 283 282 282 280 278 277 277 278 283 282 281 283 283 276 271 277 279 280 280 278 277 275 267 262 258 258 262 268 269 269 270 269

GFSMW_sfc_thetae_045.txt.gz
Theta_e
312 316 319 322 324 326 326 325 321 319 318 317 316 312 312 312 311 312 312 311 310 310 310 309 309 308 307 306 306 304 303 302 304 301 300 301 307 307 305 304 303 302 301
312 313 316 320 323 324 326 323 323 319 318 317 316 314 312 311 311 309 309 308 309 309 308 309 307 307 306 305 304 303 301 301 303 298 298 295 298 303 303 303 301 300 300
309 310 312 314 317 319 320 319 318 319 318 317 314 312 311 310 309 309 308 307 308 308 308 307 307 306 306 303 303 302 300 298 301 301 297 293 291 295 299 299 299 299 298
309 310 310 310 311 312 313 314 314 313 314 314 313 311 311 310 309 309 308 307 307 307 307 306 306 305 305 302 301 302 301 300 297 299 301 299 296 290 289 295 296 297 297
309 309 309 310 309 310 311 311 312 311 311 312 312 311 309 309 309 310 308 307 307 306 305 305 304 304 303 303 301 300 299 299 297 296 295 294 295 294 290 288 291 294 296
308 309 309 310 309 310 310 310 310 309 309 309 310 310 308 306 306 306 306 305 305 305 305 304 304 303 302 301 300 300 299 298 298 297 296 294 292 291 290 288 290 290 293
308 308 308 308 309 309 308 309 309 307 307 307 306 306 305 303 302 302 302 302 303 303 304 304 303 302 301 300 300 299 298 298 297 297 296 296 295 295 293 290 288 287 292
308 308 309 310 310 309 308 308 307 304 303 303 303 303 303 303 303 303 303 303 303 303 305 303 302 301 301 300 300 299 299 299 298 297 297 296 296 295 292 290 287 286 287
307 308 309 309 308 307 306 307 303 302 301 300 302 302 303 302 302 303 303 303 303 302 302 302 301 301 301 300 300 299 298 298 297 296 295 295 295 294 292 292 290 286 282
304 304 304 304 303 304 302 301 300 298 298 299 301 300 300 300 301 302 301 301 301 301 300 300 300 299 299 299 299 298 297 296 295 294 291 290 291 290 290 289 289 288 285
300 300 300 300 299 299 299 299 297 297 299 298 298 299 299 299 299 299 299 299 299 300 299 299 298 297 298 298 297 295 294 291 290 290 289 288 289 288 287 287 286 285 285
298 299 299 300 300 300 299 298 298 298 298 297 298 298 297 298 297 297 297 298 298 299 299 299 297 297 296 296 293 292 290 289 287 288 288 287 286 286 286 285 284 284 284
298 298 298 298 298 298 299 298 296 295 296 295 295 296 296 296 296 296 296 297 296 296 297 296 296 295 294 291 290 289 288 287 287 287 286 286 286 285 285 284 284 284 284
297 297 296 297 297 297 296 294 295 295 294 294 294 295 295 295 295 295 295 295 295 295 295 295 294 294 291 289 288 288 287 286 286 286 286 286 285 285 284 283 283 283 281
296 295 295 296 296 295 294 293 293 293 293 293 293 295 295 295 295 295 295 295 294 294 294 293 291 289 289 288 288 287 287 286 286 286 285 285 284 283 283 282 282 282 280
295 295 295 294 293 292 291 291 291 292 292 292 292 294 295 294 294 294 294 294 293 292 292 290 289 289 289 286 286 287 287 285 283 282 282 282 281 281 281 280 280 280 279
294 293 294 292 292 291 290 290 290 291 291 291 292 293 293 292 292 293 293 292 292 291 290 290 289 288 287 285 285 283 284 283 282 281 280 280 280 280 280 280 280 281 281
294 294 293 292 290 290 290 290 290 290 290 290 290 291 291 291 292 292 292 292 292 292 291 290 287 286 286 284 284 282 283 282 281 280 280 280 280 280 279 280 281 280 281
295 294 292 290 289 289 289 289 289 289 288 288 288 289 290 291 291 290 290 291 290 289 288 287 286 285 284 282 282 282 282 281 280 280 280 280 279 279 280 280 279 279 279
294 290 289 288 289 288 289 288 288 287 287 288 289 290 291 290 289 289 289 290 288 286 287 285 285 283 284 281 281 282 282 280 280 280 280 279 279 279 279 279 278 277 278
288 288 289 288 288 288 289 287 287 286 287 289 289 290 291 290 290 289 288 288 286 286 285 284 284 284 283 282 280 281 282 280 279 279 278 279 278 278 278 278 278 278 278
287 288 288 287 288 288 288 287 286 287 288 289 288 287 287 286 288 288 287 286 286 285 282 282 283 284 283 281 281 280 280 280 279 278 278 278 277 277 277 277 277 277 277
287 287 287 286 287 288 288 286 287 287 287 287 286 287 287 287 287 286 286 285 285 284 283 282 282 282 283 283 280 280 280 280 279 279 277 276 276 275 276 275 275 276 276
287 287 286 285 286 286 287 287 287 287 286 284 286 287 286 286 286 286 285 285 284 283 282 281 282 282 282 282 283 281 282 279 278 277 277 274 274 274 274 275 276 276 274
286 286 285 285 285 286 286 287 287 287 285 284 283 284 285 285 285 285 285 284 284 284 282 282 282 282 281 282 281 281 281 280 278 275 275 275 274 273 274 275 274 274 273
285 285 285 285 285 285 285 285 287 286 284 283 283 284 283 285 284 284 283 284 284 282 283 283 283 284 282 280 281 281 280 278 276 275 274 273 272 272 272 273 273 273 271

GFSMW_sfc_thetae_051.txt.gz
Theta_e
323 325 328 329 330 332 333 332 328 330 331 329 326 324 322 320 319 318 319 319 318 318 318 317 316 316 312 312 311 308 306 305 306 303 303 304 307 309 308 309 308 307 307
323 325 328 330 331 331 331 329 329 329 330 328 327 325 322 319 319 319 319 318 318 317 316 316 314 313 310 309 308 307 304 303 304 300 299 296 299 302 305 305 306 307 305
323 325 327 327 327 326 329 330 330 330 328 326 323 322 320 319 317 317 317 317 317 316 315 314 312 310 308 306 306 306 303 300 301 303 298 293 292 296 300 301 302 304 302
322 324 325 327 328 328 328 326 326 326 324 323 320 319 315 313 317 317 317 317 316 314 312 311 309 309 308 307 306 305 304 302 298 300 300 301 299 293 291 298 298 300 300
321 318 320 321 323 324 324 325 324 322 322 320 320 318 317 318 318 316 314 314 313 312 310 309 308 308 307 307 306 305 304 302 300 298 298 298 298 297 293 290 293 297 297
318 316 317 318 319 322 321 321 319 319 320 319 319 318 316 314 313 312 309 309 308 308 308 307 308 308 307 306 305 306 304 302 301 300 299 297 294 293 293 292 292 292 294
316 315 315 316 318 319 320 320 318 317 319 319 317 315 313 310 308 308 308 306 305 305 306 307 306 305 305 305 305 305 303 302 300 300 298 298 297 296 294 292 291 289 292
315 315 316 317 318 318 319 318 318 316 317 315 313 311 309 310 309 308 307 306 305 306 307 306 305 305 305 306 304 304 303 302 302 300 299 298 297 296 295 291 290 288 288
315 315 316 318 318 318 319 318 317 315 313 310 308 308 308 307 306 307 307 306 306 304 304 304 303 303 302 302 303 302 301 301 300 299 299 297 296 295 294 292 291 289 285
315 316 317 318 319 319 318 319 317 312 307 307 306 304 305 307 307 306 304 303 302 301 300 300 300 300 300 301 300 301 300 299 299 298 297 296 295 294 293 292 291 291 288
315 316 317 318 318 318 316 313 310 307 306 304 304 304 305 304 303 302 301 300 301 300 299 299 299 299 299 299 299 299 298 296 296 296 295 294 294 292 292 292 291 290 289
316 316 316 315 314 313 311 309 308 305 303 303 304 302 302 302 301 300 300 300 299 300 299 299 298 298 298 298 297 296 296 295 293 293 293 292 291 291 291 291 289 289 289
315 314 313 311 310 310 308 307 304 302 300 303 300 301 300 299 299 299 299 299 299 299 298 298 298 297 298 297 296 295 294 294 293 292 291 291 290 289 289 289 288 288 287
312 311 310 309 309 308 306 303 302 302 301 300 299 298 298 299 299 299 298 299 299 298 298 298 297 295 294 295 294 293 292 292 292 292 292 290 289 288 287 285 285 285 284
309 309 309 308 307 305 303 303 301 300 300 298 297 297 298 298 298 298 298 298 298 298 297 297 296 294 294 293 292 293 292 291 291 291 290 289 287 285 284 283 283 283 282
309 309 308 307 305 304 301 301 300 299 299 296 296 296 296 296 296 297 297 297 297 297 297 295 294 294 293 287 287 287 290 290 289 288 288 288 287 286 285 284 284 282 280
308 307 306 305 304 302 301 298 298 298 296 295 294 294 294 294 295 295 296 296 296 296 295 294 293 293 294 287 287 285 288 288 288 288 287 286 286 286 285 284 283 283 283
308 307 306 304 302 300 297 298 297 296 294 293 293 293 294 293 294 295 295 296 296 295 293 293 293 291 292 287 285 284 287 288 288 287 287 286 285 284 281 281 280 281 281
308 307 305 302 300 297 297 297 295 294 293 292 292 293 293 293 294 294 295 295 294 293 291 292 292 292 290 285 284 284 287 287 286 286 286 286 284 281 280 279 279 279 280
307 305 303 300 296 296 296 294 293 292 291 292 292 293 294 293 293 293 293 293 293 292 291 290 291 287 290 285 284 284 286 286 283 285 285 283 281 279 279 278 278 277 279
304 301 297 295 296 296 294 292 292 291 292 292 293 293 294 293 293 292 292 292 292 291 290 288 289 289 289 288 284 283 284 284 283 283 283 284 280 279 278 278 278 278 278
296 295 294 294 295 294 293 291 290 292 293 292 292 292 293 293 292 292 292 291 290 288 288 287 286 288 289 286 285 284 282 283 282 282 283 284 280 279 278 278 279 278 278
293 295 295 294 294 293 291 289 291 292 292 292 292 291 291 291 291 291 291 289 287 286 286 287 286 287 288 288 285 284 283 282 282 283 282 280 280 279 279 279 278 278 280
293 294 292 292 291 291 291 291 292 292 291 291 291 291 290 288 288 290 289 288 287 286 286 285 285 286 285 286 287 285 284 282 282 283 283 282 280 280 279 280 281 281 280
293 294 292 291 290 291 291 291 292 292 291 291 291 290 290 287 286 286 287 288 289 287 286 286 285 286 284 285 285 284 284 285 283 281 282 281 282 280 280 280 280 280 280
293 292 291 290 290 290 290 291 292 292 290 290 290 290 289 287 286 285 286 287 286 285 284 284 284 286 285 285 284 283 283 282 282 280 280 280 281 280 279 279 279 279 278

GFSMW_sfc_thetae_054.txt.gz
Theta_e
321 324 326 328 327 329 332 329 325 325 326 324 323 321 320 320 318 318 318 318 317 317 316 315 314 312 309 307 306 303 301 300 301 298 297 297 299 298 299 299 299 301 304
320 323 326 329 330 331 329 328 327 326 327 328 327 324 321 318 317 317 317 317 316 315 314 313 311 310 307 305 304 302 300 299 300 295 295 291 293 296 298 298 298 298 298
320 323 326 328 330 328 329 328 328 328 329 327 323 323 321 318 315 315 315 315 315 314 312 311 309 307 305 303 302 301 300 296 297 298 293 290 288 292 295 296 296 296 295
322 324 325 325 326 327 328 329 329 328 327 323 320 318 314 312 314 315 315 315 315 312 311 308 306 305 305 303 302 302 299 298 295 296 299 295 293 289 288 292 295 295 295
322 322 324 325 327 328 328 327 325 323 322 321 320 318 316 316 316 315 313 312 312 312 310 307 306 304 305 304 303 303 301 298 296 295 294 293 293 292 289 286 289 292 293
320 320 323 323 322 326 325 325 321 319 320 319 319 318 316 312 310 309 307 308 307 306 306 306 305 305 304 303 303 300 300 298 297 296 295 293 291 290 289 287 287 287 290
317 316 316 316 318 318 320 320 318 316 318 318 318 316 312 309 308 308 306 305 304 304 304 304 303 302 302 302 302 301 299 298 296 295 295 295 294 294 292 290 286 285 287
315 314 314 316 317 318 318 318 316 316 317 317 313 312 309 309 308 306 305 304 304 304 304 303 302 301 301 300 300 300 299 298 296 296 295 295 295 293 292 289 285 281 284
314 314 315 316 317 317 318 319 317 315 315 312 310 308 308 306 305 306 305 304 303 301 300 299 299 298 298 298 298 296 297 296 295 294 295 294 294 294 292 290 288 284 280
314 314 315 317 317 318 318 319 318 312 309 308 307 306 304 305 306 304 303 301 300 299 298 298 297 297 297 297 296 295 296 295 295 295 293 292 292 291 290 288 287 286 284
313 314 315 317 318 317 317 317 315 308 306 305 305 304 305 304 302 301 300 299 298 298 297 297 297 296 296 296 295 295 294 293 293 291 291 291 291 290 288 288 287 286 286
314 315 316 316 317 316 315 313 310 307 304 304 304 305 305 301 300 299 298 299 297 298 297 297 297 296 296 296 294 293 293 292 290 290 291 290 291 288 287 286 285 284 284
314 315 316 315 314 314 312 310 306 304 303 302 302 302 300 299 298 298 298 298 297 297 296 296 296 296 294 293 293 292 292 290 291 291 290 289 287 286 285 283 282 282 283
313 314 313 312 311 311 308 306 304 304 302 302 299 298 297 297 298 298 297 297 297 296 296 296 296 295 292 293 292 292 291 289 289 290 289 289 287 282 281 281 279 281 279
312 312 311 310 309 308 306 304 303 302 301 299 298 297 297 297 297 297 297 297 297 296 296 295 294 294 293 293 290 290 288 289 289 289 289 287 286 287 283 280 279 279 278
310 311 310 309 308 306 304 303 302 301 300 298 295 296 296 295 295 296 296 296 296 295 295 294 293 292 293 289 288 287 286 287 286 285 285 285 287 285 285 285 284 282 277
309 309 309 308 307 305 303 301 300 299 297 295 294 295 294 294 295 295 294 294 294 294 294 292 291 291 291 288 287 285 285 284 284 284 283 284 285 284 281 282 282 281 282
309 309 308 307 305 303 300 299 297 296 295 294 293 293 294 293 294 294 294 294 294 292 292 289 290 290 290 288 286 285 283 283 284 283 283 282 282 279 279 278 277 277 279
310 309 307 304 301 298 298 297 295 295 293 292 292 293 293 292 293 292 293 292 291 291 290 290 289 288 287 287 286 284 282 283 282 283 283 283 281 280 281 278 276 276 277
309 306 303 301 298 296 297 295 294 293 292 292 292 292 293 293 292 292 291 291 290 290 290 288 288 288 287 286 285 284 281 280 281 282 282 281 279 280 279 274 273 273 276
305 303 299 296 296 296 295 293 292 291 292 293 293 292 293 292 292 292 291 290 289 289 286 285 285 286 286 286 286 285 281 280 281 281 280 280 280 280 280 279 275 275 277
296 296 295 295 294 294 293 291 290 291 292 292 292 292 292 291 291 290 290 290 288 285 284 283 284 284 285 287 286 286 284 283 279 280 280 281 282 281 280 278 279 279 278
294 295 294 293 293 293 292 289 290 292 292 291 291 291 292 291 290 288 287 287 286 283 282 284 283 283 285 283 287 286 285 283 280 281 282 282 282 282 280 281 281 277 275
293 293 292 291 291 292 291 291 292 292 291 290 290 290 289 289 288 287 286 285 285 283 283 283 283 282 282 282 283 282 283 283 282 281 281 280 279 277 277 276 278 277 276
293 293 292 291 291 291 291 292 291 292 290 290 290 289 289 288 286 286 286 285 285 285 283 283 282 279 278 281 282 283 282 282 282 278 277 276 277 277 277 277 276 276 276
293 292 292 291 290 290 290 291 291 291 290 289 288 287 286 286 285 285 285 286 286 286 286 285 283 281 284 285 285 285 284 283 282 277 275 274 275 278 275 274 274 275 274

GFSMW_sfc_thetae_060.txt.gz
Theta_e
316 319 320 320 321 321 323 322 320 319 318 316 315 313 312 312 311 311 312 311 311 310 308 306 304 302 301 300 299 297 295 294 294 292 292 292 292 293 292 294 293 294 295
310 313 317 320 322 322 321 320 320 319 319 318 317 316 313 312 311 310 310 310 309 309 306 304 302 301 299 298 297 296 294 294 294 291 289 287 289 292 294 292 294 291 293
312 314 317 321 321 320 319 319 320 320 319 318 319 313 310 309 307 307 306 308 309 308 306 304 302 300 299 298 296 296 295 292 293 293 291 287 285 287 290 291 291 291 291
314 319 320 321 322 321 319 320 321 320 319 320 318 312 308 306 306 306 307 307 308 306 305 303 301 300 299 298 297 298 295 294 292 292 295 291 290 286 284 289 291 291 291
315 319 320 321 321 321 321 320 320 320 321 321 317 313 307 306 307 308 307 307 306 306 304 302 300 299 299 297 296 296 295 294 292 291 291 289 289 288 285 285 286 288 289
315 319 321 323 321 321 319 319 319 320 320 317 312 309 307 306 305 304 303 304 303 303 301 300 298 297 296 296 295 294 294 294 293 293 291 290 289 288 286 287 286 284 287
316 317 317 318 318 318 319 317 316 311 310 308 307 306 303 302 301 301 302 301 301 301 300 299 295 295 294 294 293 292 292 292 292 292 291 291 291 291 291 290 290 287 284
317 317 317 316 316 316 314 313 310 309 307 304 303 302 302 301 302 302 302 302 301 298 298 296 294 293 293 292 292 291 290 291 291 291 290 291 291 292 292 290 289 286 281
314 314 314 313 311 309 308 309 309 309 305 303 302 301 302 303 301 303 303 302 301 297 295 293 292 292 292 292 292 290 290 290 290 289 289 289 290 290 290 290 289 284 277
310 311 312 311 311 310 309 308 309 308 303 301 301 301 301 303 302 301 303 299 297 295 293 292 292 292 292 293 292 290 290 289 288 289 288 288 289 288 287 288 288 287 285
308 309 311 311 311 311 310 308 306 303 301 299 299 301 301 303 302 299 297 296 294 293 293 293 292 292 293 293 290 290 290 288 287 287 288 288 288 287 289 288 288 283 282
307 309 310 311 310 310 306 305 304 302 300 301 302 303 303 302 300 297 295 295 293 293 292 293 293 293 294 292 290 289 289 289 287 287 287 287 289 285 283 281 279 279 278
306 307 309 309 310 309 303 301 301 300 302 304 302 304 304 296 294 294 294 293 292 292 292 293 293 293 293 290 289 290 289 288 287 287 286 286 285 283 280 279 278 278 280
307 305 308 309 308 303 301 300 301 304 305 304 302 298 295 295 293 293 292 293 293 292 293 294 293 293 291 290 291 290 288 286 287 287 286 286 285 281 279 279 277 278 277
305 307 306 306 301 300 300 302 302 302 301 296 293 293 293 293 292 291 290 291 293 293 293 292 292 291 291 291 289 288 287 285 285 285 286 285 284 286 282 279 277 277 276
306 305 306 304 302 301 301 300 298 295 293 292 292 293 292 291 292 290 292 293 292 292 292 291 290 289 290 291 290 287 284 285 286 285 285 284 285 285 285 284 282 279 276
305 305 305 303 302 300 300 296 292 292 291 291 292 291 291 290 290 292 292 291 291 290 289 289 288 288 288 290 289 287 284 283 282 282 281 281 283 283 281 282 281 279 280
302 302 301 298 296 295 293 291 291 292 291 291 290 290 291 292 291 291 291 290 290 288 287 287 287 286 287 289 289 287 282 282 282 281 281 280 279 279 279 278 277 277 277
296 294 293 292 291 291 291 290 289 289 289 288 290 291 292 290 290 289 289 288 288 287 287 287 286 285 284 288 288 286 282 280 280 282 281 280 279 281 282 278 276 277 276
292 291 290 290 289 289 290 289 288 289 288 290 292 291 290 290 290 288 287 287 286 286 286 285 285 285 284 286 288 287 279 280 280 281 281 283 279 281 281 276 274 272 275
289 290 289 289 288 289 290 289 289 288 291 292 291 291 291 290 289 287 286 285 283 282 282 282 282 283 284 283 287 288 281 281 281 280 280 280 282 281 281 281 276 274 276
289 289 288 287 288 291 291 290 291 290 290 290 290 290 289 289 288 286 285 284 282 280 277 276 280 282 282 284 285 287 287 284 280 280 280 280 282 282 282 282 281 281 279
288 289 289 290 291 291 291 288 288 289 289 289 288 288 288 288 287 284 283 281 280 278 278 278 279 279 281 280 284 286 287 286 282 281 281 282 283 283 282 282 282 279 276
290 291 290 290 289 289 289 288 289 289 288 287 287 286 285 285 284 283 283 280 279 278 280 279 279 279 280 280 281 282 282 285 285 281 281 280 279 275 276 276 278 276 274
290 291 290 289 288 288 287 287 288 288 287 286 285 284 284 284 283 283 282 282 282 282 281 281 280 277 277 280 283 282 280 279 281 282 281 279 277 277 276 275 276 276 276
291 290 289 287 286 286 286 286 287 287 285 284 284 283 282 283 282 282 283 285 285 284 285 286 284 282 283 285 285 285 286 285 284 280 274 274 273 273 274 273 274 274 274

GFSMW_sfc_thetae_063.txt.gz
Theta_e
314 316 321 319 317 317 320 321 318 317 317 315 313 311 310 310 309 309 310 311 311 310 307 304 302 301 300 298 297 296 294 293 293 291 291 291 291 291 291 292 292 293 294
311 314 316 315 316 318 319 319 319 317 317 317 315 314 312 311 309 310 309 309 308 307 305 303 301 300 299 297 296 295 294 293 293 291 288 287 289 290 292 291 292 290 292
311 313 316 315 317 318 318 319 318 318 318 317 315 311 309 308 307 307 306 307 308 306 305 303 300 298 298 296 295 294 293 292 292 292 291 286 284 286 289 290 290 290 290
312 312 313 316 317 319 319 319 319 318 319 318 316 313 308 306 306 305 305 306 307 306 304 301 300 298 298 296 296 296 294 293 291 291 293 290 289 286 284 288 289 290 291
309 310 313 318 319 319 317 318 319 319 319 319 317 311 307 305 305 305 305 305 304 303 302 300 298 298 297 296 295 294 293 293 291 290 290 289 288 287 285 282 285 288 290
311 314 315 319 320 320 318 318 319 319 318 318 315 311 307 305 304 304 303 301 300 300 300 300 297 297 298 295 293 292 292 291 291 291 290 290 288 287 285 283 284 284 287
313 316 316 319 320 319 318 319 319 317 317 316 312 310 306 305 305 303 300 298 298 299 299 299 299 296 293 292 292 291 289 289 289 289 290 290 290 290 289 287 285 288 289
315 316 318 318 319 319 318 318 317 311 310 309 308 304 303 302 301 300 299 300 301 298 299 299 296 294 292 291 290 289 289 290 289 288 288 289 290 290 290 288 285 284 286
315 316 317 317 318 317 317 313 310 306 304 303 302 301 303 302 302 303 303 301 301 301 298 295 293 292 291 291 290 289 289 288 289 288 287 287 289 289 289 290 289 287 282
314 316 315 315 315 315 314 309 309 305 302 302 303 302 302 302 303 304 302 302 300 297 295 293 292 292 291 291 292 290 289 288 287 288 287 286 287 287 286 286 286 285 284
312 314 314 314 313 311 309 309 307 303 301 301 301 302 302 302 302 301 300 299 297 295 294 293 291 291 291 292 290 289 289 288 287 287 286 286 287 286 287 288 287 286 282
310 312 313 311 309 308 308 308 307 303 301 301 299 300 301 300 300 301 299 296 292 294 292 292 292 292 292 291 289 288 289 287 286 286 286 286 289 285 283 281 280 279 278
307 309 310 310 309 308 305 301 299 298 300 302 302 302 303 300 298 296 295 292 292 292 291 291 291 291 291 291 289 288 288 288 287 286 285 286 285 283 281 280 279 278 280
306 307 308 308 307 304 300 298 299 302 303 302 303 302 299 298 294 292 292 292 292 291 292 291 292 291 291 291 290 290 288 287 286 286 286 285 284 283 283 280 279 278 277
304 303 304 305 302 300 300 300 302 304 304 303 299 297 296 293 291 292 290 290 293 291 291 291 291 291 290 290 289 288 287 286 284 284 285 285 286 287 284 280 278 277 276
303 304 305 302 300 300 301 300 301 301 300 296 293 292 291 291 291 291 290 291 290 291 290 289 289 289 290 290 290 288 285 284 284 283 284 286 286 285 287 285 283 279 276
303 304 303 301 300 299 300 299 296 296 292 292 291 291 292 291 291 292 291 289 288 289 288 287 287 287 287 289 290 289 284 283 283 282 282 282 282 283 282 284 283 282 281
302 301 301 299 298 296 293 291 291 291 290 289 290 290 290 291 291 290 289 288 288 287 286 286 286 285 286 289 290 289 284 282 282 284 282 280 280 280 280 278 277 277 278
293 292 293 292 291 290 289 289 288 288 288 289 289 290 291 290 290 288 288 287 286 286 285 285 285 284 284 287 288 287 282 281 281 282 282 281 280 282 284 279 277 277 277
289 288 288 288 288 287 289 288 287 288 288 290 292 292 291 289 288 288 287 286 284 285 283 283 283 285 283 286 287 287 282 282 281 280 282 284 282 282 283 276 274 273 276
288 288 288 287 287 288 289 287 288 289 291 291 291 290 290 289 288 287 286 285 283 282 281 281 281 282 282 282 286 287 286 282 281 281 281 281 283 283 283 282 276 274 277
287 287 287 287 287 290 291 290 288 289 290 290 289 289 288 287 287 285 285 284 282 280 278 275 278 280 281 284 284 286 286 285 281 281 281 281 283 284 283 282 281 282 279
286 288 289 290 290 290 290 288 288 289 288 288 287 287 287 286 285 284 283 282 281 279 280 279 279 279 280 280 284 285 286 285 284 283 282 283 283 284 282 283 283 280 276
287 289 290 289 289 289 288 288 288 287 287 286 286 285 284 284 283 283 283 281 280 280 281 281 280 280 280 279 280 281 281 284 284 283 284 282 281 281 281 278 280 278 274
290 290 289 288 287 287 285 286 287 286 284 283 283 283 283 282 282 283 282 283 284 284 284 283 282 281 279 280 282 281 279 279 281 280 280 280 279 279 278 278 277 276 274
290 289 286 285 285 285 285 285 286 285 283 282 282 282 282 282 282 281 282 285 285 285 286 285 285 285 284 285 285 285 285 285 285 280 279 278 278 276 277 276 276 275 273

GFSMW_sfc_thetae_066.txt.gz
Theta_e
317 318 319 319 317 316 319 318 316 315 316 314 311 310 310 310 310 311 311 311 309 307 306 303 301 301 299 297 296 295 294 294 293 292 292 291 292 292 292 293 293 294 295
311 313 316 316 314 315 318 318 317 316 316 316 312 312 310 310 308 310 310 309 309 307 304 302 300 299 297 297 296 295 294 293 293 291 289 288 290 291 292 292 293 292 293
311 310 314 316 314 315 317 319 317 317 316 315 314 312 312 308 307 306 306 307 307 306 303 301 299 298 297 296 295 294 294 292 292 292 291 287 285 287 290 291 291 292 292
312 311 313 314 314 316 317 319 318 317 316 316 314 313 311 307 307 306 305 305 306 304 303 301 298 298 297 297 296 298 294 293 292 292 293 291 289 287 285 289 290 291 291
312 311 312 315 315 315 316 317 317 317 317 317 316 315 313 307 305 304 304 303 302 302 301 299 298 300 297 297 296 294 293 293 291 290 290 289 288 287 286 283 287 289 291
309 310 310 314 315 315 314 315 316 318 317 317 317 315 311 305 303 303 302 301 300 299 299 301 300 296 298 297 293 292 291 291 291 291 290 289 288 287 286 283 284 285 288
306 307 311 315 315 316 316 317 317 317 318 317 318 316 309 305 304 303 300 298 298 297 298 299 299 297 296 294 291 290 289 289 289 289 289 290 290 290 289 287 286 285 286
308 311 312 316 317 318 319 318 318 317 316 316 316 311 308 306 304 302 299 298 299 299 300 301 299 296 294 291 292 290 289 289 289 289 289 289 290 290 290 288 288 286 286
309 313 315 316 316 317 318 318 318 316 314 313 309 306 306 303 301 301 302 302 299 301 301 299 296 294 293 293 290 289 289 289 288 288 289 288 288 289 289 290 290 289 283
308 312 315 316 318 318 319 319 316 312 307 305 305 304 301 302 303 302 301 301 301 300 299 296 294 293 293 292 290 289 289 289 288 288 287 287 287 288 287 287 287 287 284
310 312 315 316 316 318 315 313 309 305 302 302 301 302 301 301 302 302 301 301 300 299 296 294 293 293 290 292 291 290 290 288 288 287 287 287 287 287 286 286 286 285 286
310 313 314 314 313 312 311 310 307 302 299 299 300 299 299 300 301 300 301 300 298 296 292 293 293 292 291 291 290 289 289 288 287 287 286 286 288 285 285 284 283 283 282
307 309 310 310 310 308 308 305 301 298 298 301 301 300 301 301 299 300 299 297 292 292 292 293 293 291 291 291 290 289 288 287 287 287 286 285 284 283 283 282 281 280 280
306 308 308 307 306 304 302 300 302 301 301 302 303 301 302 300 297 295 293 291 293 292 292 292 292 291 291 290 290 289 287 287 287 286 285 285 284 283 283 283 281 280 278
303 305 305 304 301 300 300 301 301 302 303 302 302 300 297 294 293 292 292 292 293 292 292 290 290 290 290 290 288 288 287 286 285 285 284 284 285 287 284 282 281 279 277
304 301 304 302 302 300 300 302 301 302 303 301 297 295 294 292 291 291 291 292 291 291 289 288 288 288 289 290 290 289 285 285 284 283 284 284 287 286 287 287 285 280 278
301 302 302 300 300 301 301 300 299 300 298 294 293 292 292 291 290 292 291 290 289 290 288 288 287 286 286 289 290 289 286 284 283 282 283 283 284 284 282 283 285 283 282
300 299 298 298 298 297 295 294 293 291 292 291 290 291 291 291 291 290 290 289 288 288 287 286 285 284 285 288 289 289 285 283 283 282 282 282 281 281 281 281 280 279 279
291 291 292 291 290 289 289 289 289 290 290 290 290 291 292 290 290 288 288 287 286 286 285 284 283 283 283 287 287 287 283 283 282 283 282 282 281 282 284 281 278 278 278
287 287 287 287 287 287 288 288 289 290 289 291 291 291 290 290 289 288 287 286 284 283 283 283 283 284 283 285 287 286 281 284 283 283 282 284 282 283 284 280 277 274 277
286 287 287 286 287 288 289 287 288 289 291 291 291 290 290 288 288 286 284 284 283 282 281 281 282 282 282 282 286 287 283 284 283 282 281 281 283 284 285 284 278 277 278
285 287 287 287 288 289 290 289 288 289 290 289 288 289 288 287 286 284 284 283 282 281 280 278 280 281 282 284 284 286 286 284 283 283 282 282 284 284 285 284 283 281 279
286 289 288 287 288 289 288 287 286 287 287 287 286 285 285 284 283 282 282 281 281 280 280 280 281 282 283 281 284 285 286 285 283 285 284 284 284 285 284 284 283 281 280
287 288 287 286 285 285 286 286 287 286 285 283 283 282 282 282 282 282 282 280 279 279 281 281 281 282 283 282 281 281 282 284 284 283 284 284 283 281 281 282 283 282 280
287 287 285 284 284 285 285 285 284 283 282 281 281 280 281 280 280 281 281 281 281 281 281 282 282 282 282 283 285 283 283 282 281 278 277 281 280 279 278 279 279 279 279
285 285 284 284 284 282 281 281 282 280 279 279 279 278 279 278 278 278 278 282 283 283 284 284 282 282 284 285 286 287 287 286 284 280 278 279 280 279 278 278 277 278 278

GFSMW_sfc_thetae_069.txt.gz
Theta_e
319 319 322 323 323 325 324 326 325 324 323 322 323 322 323 322 322 321 319 316 315 315 317 314 312 311 309 308 308 307 306 305 306 304 304 302 302 302 303 304 304 303 304
318 319 321 323 324 323 324 325 325 324 324 325 324 323 322 320 321 319 316 314 314 315 314 312 310 310 308 308 308 307 305 306 305 303 301 298 299 300 302 302 302 303 303
317 319 319 322 323 324 323 324 325 324 324 324 321 318 318 316 315 315 312 314 314 314 313 311 310 309 309 307 307 306 305 303 304 303 300 295 293 296 302 301 301 302 302
318 318 319 320 322 323 324 325 324 323 323 322 321 319 317 313 315 313 312 313 315 313 311 310 310 309 308 307 307 306 305 304 302 303 302 302 300 293 291 300 300 301 300
319 317 317 319 322 323 322 324 324 323 322 322 322 320 317 317 316 312 313 313 313 312 310 310 309 308 307 306 306 305 304 305 301 299 300 299 299 299 295 291 294 298 300
319 320 319 319 320 322 322 323 323 322 322 322 321 320 317 315 313 312 311 311 311 310 309 308 307 306 305 302 302 302 301 301 301 300 299 297 295 295 295 293 293 293 296
316 318 316 316 319 319 321 321 322 320 322 321 321 321 318 316 315 312 312 310 309 307 307 307 304 305 299 298 298 300 300 300 299 299 298 300 299 298 296 294 292 292 294
314 315 317 317 319 320 321 321 320 321 322 321 321 321 319 315 315 314 313 311 310 308 306 306 303 300 299 298 298 298 300 300 300 300 300 299 298 297 296 293 292 290 291
311 313 315 318 319 320 321 321 321 321 321 320 322 321 317 315 315 314 313 311 308 305 306 306 300 299 298 299 300 300 299 300 300 299 299 297 297 296 295 295 295 291 287
310 313 315 318 320 322 322 323 323 322 320 321 322 320 318 318 315 312 308 307 306 306 306 301 299 298 299 300 299 299 299 298 299 297 297 296 296 295 295 294 294 294 290
311 313 317 319 321 322 323 322 322 320 319 320 320 318 316 314 311 309 306 306 306 302 301 300 300 299 299 299 298 298 298 297 297 296 295 295 295 294 294 294 293 292 292
314 316 318 320 320 321 321 321 319 317 317 314 313 310 308 308 308 306 306 306 302 304 300 299 299 298 298 298 298 297 297 296 295 295 295 294 293 293 294 293 292 292 292
313 316 317 318 319 319 318 319 315 310 308 308 306 306 306 305 304 304 303 302 301 302 300 299 297 298 298 297 297 297 296 296 295 295 295 294 294 293 293 292 291 291 290
311 315 316 317 318 317 317 313 309 307 305 305 304 304 304 304 302 301 300 297 296 297 296 297 298 297 297 296 296 296 296 295 295 295 294 294 293 292 292 291 291 289 287
308 312 315 315 312 311 310 308 306 306 307 305 304 302 300 297 296 295 296 295 297 297 296 296 296 296 296 295 296 295 295 295 294 295 294 293 293 291 290 289 289 289 287
304 309 311 309 307 306 306 305 306 306 305 303 300 297 295 294 294 294 293 295 296 295 295 295 295 294 293 290 290 291 294 294 293 293 293 293 290 290 289 289 288 288 288
305 306 308 308 306 305 305 305 305 305 303 300 296 294 293 293 293 293 295 294 294 295 295 294 294 293 294 289 289 289 292 293 293 293 292 291 290 289 290 287 285 286 284
303 303 304 304 304 305 304 303 301 298 295 293 292 292 293 292 292 295 294 294 294 294 294 294 293 293 292 288 288 288 292 292 292 292 291 290 290 290 288 287 286 286 286
298 299 300 299 299 299 298 298 296 293 291 290 291 293 293 292 295 294 294 294 293 293 293 292 292 291 291 288 287 288 291 290 290 290 291 290 289 288 286 285 284 285 285
294 293 293 294 295 295 296 294 291 291 291 292 293 293 293 294 293 293 293 293 292 291 292 291 291 290 290 289 287 288 290 289 288 289 289 286 286 286 284 285 285 283 284
291 292 293 292 292 294 294 292 293 292 293 293 294 293 293 292 292 291 291 291 291 290 290 288 290 290 289 290 288 287 289 289 288 287 286 286 285 285 285 285 285 285 286
290 291 290 290 292 293 293 291 291 292 292 292 291 290 290 289 289 290 290 290 289 288 287 286 287 288 289 287 287 287 286 287 286 286 288 288 285 285 285 285 285 284 283
290 292 291 290 291 292 292 289 289 291 290 289 288 287 287 286 286 286 286 285 285 284 284 284 284 285 286 287 287 285 285 285 286 287 287 286 285 285 284 285 284 284 285
289 289 288 288 287 288 288 288 288 288 287 285 285 285 284 284 284 284 283 283 283 283 282 282 283 283 283 284 285 286 286 285 286 285 286 285 284 284 285 284 284 286 286
288 288 287 286 285 286 285 285 284 285 283 282 282 282 282 282 281 282 282 282 283 282 281 281 281 282 282 283 283 284 285 286 285 285 285 285 284 282 283 283 283 284 284
287 287 286 284 283 283 282 282 282 281 281 280 280 280 280 280 280 280 280 280 280 281 281 282 281 280 281 281 282 282 283 285 285 284 283 283 283 282 282 282 281 283 282

GFSMW_sfc_thetae_072.txt.gz
Theta_e
321 322 324 324 325 325 325 328 330 333 333 330 326 327 328 329 331 331 331 328 320 324 325 322 320 318 316 314 314 314 312 313 314 309 310 309 308 307 307 307 306 306 306
318 320 322 324 324 325 327 328 330 332 332 328 327 330 331 328 330 331 326 324 322 323 320 320 318 317 315 314 314 313 313 314 313 307 306 302 304 305 305 306 305 306 306
319 319 321 323 324 324 326 327 330 331 332 331 328 330 330 328 327 327 321 319 318 320 320 320 318 317 315 313 313 313 311 310 311 308 304 298 297 299 304 304 305 305 305
320 321 321 323 325 326 327 328 329 331 332 333 329 327 325 324 326 324 321 317 318 319 319 318 318 317 314 314 313 313 312 310 307 309 305 304 301 295 294 302 302 303 303
322 321 322 324 325 328 329 331 331 332 333 333 331 329 327 327 324 317 315 317 318 320 318 318 317 316 314 314 312 311 310 309 305 303 302 301 301 301 297 295 298 300 301
324 324 324 324 325 329 330 330 329 329 330 330 330 329 328 324 319 315 315 317 319 319 318 317 317 315 313 312 311 307 305 305 304 303 301 299 297 297 297 295 296 295 297
322 324 324 324 324 326 328 329 329 328 330 329 329 327 326 325 321 317 316 318 316 315 316 316 315 312 312 304 301 302 305 304 303 302 300 301 300 300 298 296 295 294 296
320 323 325 326 325 325 327 328 328 327 329 329 327 327 327 326 323 320 319 318 317 317 317 315 313 312 301 301 302 303 305 305 303 302 302 301 301 300 299 296 294 292 293
317 320 324 327 326 326 327 328 327 328 327 326 327 326 326 324 323 322 324 321 320 317 315 313 310 304 301 302 302 304 304 304 303 303 303 301 300 301 300 298 296 293 289
315 318 320 324 326 328 328 329 328 327 328 328 326 323 326 326 322 323 323 321 318 314 312 309 304 301 301 303 304 304 304 303 303 302 301 301 300 300 300 298 297 296 293
316 317 319 322 325 327 328 328 328 327 328 327 325 323 324 322 322 320 318 316 313 309 307 304 304 309 305 304 304 303 302 301 301 301 300 300 300 299 299 298 297 295 294
318 319 321 322 323 326 327 327 328 327 328 327 324 323 319 315 311 311 310 310 307 306 305 306 306 304 303 303 303 301 301 300 300 300 300 299 298 298 298 297 296 295 295
317 320 321 322 323 324 325 326 327 326 325 323 318 311 310 309 309 307 307 305 305 306 303 304 303 302 302 302 302 301 300 300 300 300 299 298 298 297 297 296 295 294 293
313 318 321 323 324 325 325 325 325 323 318 316 312 310 308 307 305 303 302 300 300 299 299 301 301 301 301 301 300 299 299 299 299 299 299 298 298 297 296 295 294 293 292
310 314 319 322 324 324 324 323 318 314 312 310 307 306 305 303 299 298 298 300 300 298 299 301 300 301 301 299 299 298 298 297 297 298 298 298 297 295 293 293 293 293 290
308 310 316 321 320 320 319 314 311 311 311 310 307 306 301 298 296 296 298 297 296 298 300 301 302 300 297 292 291 291 296 295 295 295 296 296 295 293 289 289 288 290 289
310 311 315 317 317 317 315 312 310 311 308 305 303 300 297 295 296 296 296 296 298 301 302 300 299 298 298 291 290 289 294 294 294 294 294 294 294 292 293 291 288 287 287
310 311 314 314 315 315 314 313 312 309 306 303 300 297 295 294 295 298 297 299 302 300 299 298 298 297 296 290 289 288 293 294 294 294 294 294 294 294 293 292 291 290 289
309 310 312 312 312 311 311 308 304 302 300 297 294 294 295 296 299 297 300 299 298 297 296 296 296 295 296 290 289 289 293 293 293 294 294 294 293 291 290 290 289 288 288
305 305 306 307 307 307 306 302 299 297 295 294 295 298 299 295 298 298 297 298 296 295 295 294 295 293 294 291 289 290 292 291 292 293 293 290 290 288 287 289 289 287 287
302 304 305 304 304 305 303 299 297 294 296 298 295 295 297 297 296 295 296 296 295 295 294 292 293 292 292 291 289 288 289 288 288 287 288 290 288 286 286 286 288 287 289
300 301 301 301 301 301 299 297 296 296 296 296 296 295 294 292 293 294 295 294 293 290 289 288 289 290 290 287 287 287 286 286 287 286 288 289 287 288 286 286 286 285 285
299 299 299 298 298 298 297 295 296 296 295 294 293 292 291 290 290 291 290 289 288 288 287 286 286 287 287 288 286 285 285 285 287 288 288 285 285 286 286 285 284 284 286
297 297 296 295 294 295 295 295 294 295 293 291 289 289 287 287 287 288 287 288 287 286 284 284 284 285 285 286 284 283 285 285 286 286 288 287 285 285 286 286 286 286 287
295 296 294 293 292 292 291 291 291 291 289 287 286 286 286 286 286 285 286 285 285 283 283 283 283 282 281 280 280 280 281 282 284 284 287 287 287 286 286 286 286 286 285
294 293 293 291 290 288 287 287 287 287 286 284 284 284 285 285 284 285 285 281 280 280 280 279 279 280 279 278 279 278 278 280 280 284 284 285 286 285 285 285 285 286 284

GFSMW_sfc_thetae_075.txt.gz
Theta_e
319 322 320 322 323 325 323 324 325 328 331 330 326 325 325 330 332 333 334 334 332 331 330 327 324 322 319 317 317 316 315 314 315 311 312 312 311 310 309 309 308 307 307
318 320 322 323 321 322 322 324 326 330 331 329 326 325 327 331 333 334 332 331 326 326 329 326 323 320 317 317 317 316 314 315 314 310 308 305 307 308 308 308 307 308 307
317 318 321 323 324 322 323 324 327 330 332 330 325 326 332 330 328 329 328 328 327 328 327 325 322 320 318 315 317 316 315 312 313 311 307 302 300 301 305 306 306 307 306
319 319 321 322 324 325 328 328 329 330 331 334 327 327 327 325 328 328 327 322 322 322 323 323 321 320 318 317 316 316 316 314 310 311 308 307 305 299 297 303 304 305 305
320 319 320 322 324 327 327 328 330 330 331 333 332 328 327 327 329 327 325 321 318 321 322 321 320 320 317 317 317 315 313 311 307 303 305 304 303 302 298 296 299 303 303
321 321 323 323 324 331 331 332 329 329 331 333 333 331 328 327 326 324 320 319 317 319 322 319 320 319 318 316 314 313 311 305 306 306 304 301 299 298 298 297 298 297 298
322 322 321 322 323 326 329 331 329 329 331 333 332 333 331 330 326 323 321 320 318 318 320 320 319 318 316 314 311 307 305 306 307 305 303 302 302 302 300 298 296 295 297
321 323 324 323 324 327 329 329 329 329 330 330 331 331 332 329 326 325 323 322 319 322 322 320 319 317 314 310 307 305 303 306 307 305 304 302 302 302 301 298 295 293 293
317 320 324 326 326 327 328 331 330 329 329 330 332 331 330 329 327 327 326 322 321 320 320 320 317 314 310 306 303 301 304 306 306 305 304 303 303 302 301 300 298 295 290
317 319 321 325 328 329 328 331 330 328 330 330 331 329 328 328 328 327 324 321 319 321 319 317 313 308 303 302 302 304 306 305 305 304 303 303 302 301 301 300 299 297 294
317 319 321 324 327 330 330 329 329 328 328 330 330 327 325 327 325 323 320 319 318 316 313 307 304 303 304 306 304 305 305 304 303 303 302 302 302 300 300 299 299 297 296
316 319 321 322 324 327 329 330 330 328 328 330 329 325 324 318 315 312 312 312 309 309 305 305 306 308 307 305 304 304 303 302 301 302 302 300 299 300 300 299 298 297 297
315 318 321 322 323 325 327 329 330 329 328 329 324 318 312 311 309 309 308 307 305 305 307 305 303 302 303 304 304 303 303 302 302 301 300 299 299 299 299 299 298 298 295
314 317 320 322 324 325 327 327 329 329 328 321 318 313 311 309 307 307 307 306 304 302 301 302 302 302 303 302 302 302 302 300 300 299 299 298 298 297 298 297 298 296 295
311 314 317 322 324 326 327 327 328 326 323 318 314 309 308 307 308 306 304 302 301 300 302 300 300 302 302 302 302 301 299 297 297 297 297 298 297 296 295 296 296 295 293
310 311 314 319 324 325 325 324 321 318 316 311 307 307 307 305 301 299 300 300 300 299 299 301 302 302 302 292 292 291 295 295 295 294 295 296 295 294 291 291 290 291 292
312 313 314 319 323 324 319 314 313 313 311 308 306 305 303 300 299 298 298 298 299 299 301 302 303 301 300 293 292 290 294 293 293 294 294 294 294 294 296 292 289 289 288
313 315 318 320 321 318 314 312 311 308 306 304 303 302 301 300 299 299 300 300 301 302 303 301 300 299 297 293 291 289 294 293 294 294 295 295 296 296 294 294 294 294 293
315 316 318 319 318 314 312 309 306 305 304 303 303 302 301 299 297 298 300 302 302 300 299 298 297 296 296 290 289 289 294 293 293 294 294 294 294 292 290 291 291 291 291
313 314 315 316 315 314 312 309 306 304 303 302 300 299 298 300 301 301 301 300 299 297 296 295 296 293 295 289 289 289 290 289 289 290 290 288 288 286 287 289 289 287 288
310 312 312 312 312 311 309 304 303 302 302 300 300 301 300 299 299 299 298 297 296 295 295 294 294 292 291 291 288 287 287 287 287 286 287 289 286 286 287 287 288 287 288
307 309 309 309 309 308 306 304 301 301 301 300 299 299 298 296 297 296 296 295 294 293 291 289 289 291 291 288 287 285 284 284 285 285 288 289 287 287 286 286 286 286 285
307 308 306 305 305 305 304 301 300 300 299 298 297 297 295 294 294 294 292 291 290 289 289 287 287 288 288 289 285 284 283 283 283 285 286 285 286 286 286 286 285 285 286
304 305 303 301 300 301 300 300 300 299 298 296 295 293 292 291 290 289 289 289 289 288 286 286 286 286 285 286 284 282 283 282 283 283 285 284 284 285 285 286 288 287 286
303 303 301 299 298 298 298 298 298 297 294 292 290 290 288 288 288 288 287 287 285 283 284 285 284 282 281 281 279 279 279 280 280 281 283 285 285 285 286 286 287 287 287
301 299 298 297 296 295 294 294 294 293 290 288 288 288 287 287 287 287 285 281 282 281 280 279 279 280 278 277 277 278 278 278 280 280 282 280 281 280 281 283 283 286 286

GFSMW_sfc_thetae_078.txt.gz
Theta_e
317 318 319 320 320 318 318 318 318 319 318 321 320 321 321 325 327 328 328 331 330 330 328 325 322 321 316 313 314 312 309 308 309 306 307 308 307 304 303 304 303 303 303
315 318 320 320 320 318 319 321 322 323 323 324 325 323 324 326 328 329 330 330 329 329 327 324 321 320 316 314 313 311 310 310 309 305 303 300 302 303 305 303 303 302 302
315 316 318 320 320 320 321 322 324 325 326 327 327 324 326 327 326 326 328 328 326 325 324 325 321 318 315 313 313 311 310 308 309 307 302 297 295 296 301 302 301 300 300
317 318 318 319 319 320 322 322 323 326 329 329 324 321 320 321 325 326 327 327 325 324 325 324 321 317 316 313 313 314 311 308 305 308 309 304 300 294 292 298 298 301 301
317 316 318 321 322 321 321 322 324 327 329 330 329 323 324 324 326 326 325 321 321 321 322 321 320 318 317 316 313 312 309 308 305 301 301 301 299 299 294 290 293 297 298
317 318 320 321 321 324 323 324 326 327 329 330 329 328 325 324 324 323 321 320 320 319 319 320 319 317 316 315 312 311 309 304 303 303 302 298 296 294 293 291 292 292 293
318 317 318 319 321 322 324 326 326 325 328 329 329 328 327 325 325 323 321 318 317 317 317 318 316 316 316 312 310 307 304 303 302 302 301 300 297 297 296 294 291 290 292
319 319 319 319 320 322 325 325 325 325 326 329 329 329 330 327 327 325 321 319 319 317 317 318 317 316 313 308 306 305 304 303 302 302 300 299 300 298 297 294 291 287 289
317 320 321 321 321 322 324 326 326 326 327 329 330 329 329 329 326 324 323 322 321 319 319 317 315 313 308 306 305 302 301 302 303 303 301 300 300 299 298 296 294 290 285
317 318 321 323 323 324 325 327 328 327 328 328 329 329 328 329 328 325 323 322 320 319 316 315 309 306 305 303 302 301 302 302 303 302 301 300 299 298 297 295 295 293 290
316 318 319 321 326 325 325 327 328 328 328 328 329 328 329 327 325 323 321 319 315 312 307 306 305 304 303 304 302 302 303 303 302 301 300 299 300 297 296 295 294 293 292
315 317 319 321 323 326 325 326 327 328 328 328 328 327 325 324 322 317 314 311 308 307 306 305 305 305 306 307 304 302 302 301 301 300 300 299 300 296 296 295 293 292 292
313 316 318 319 320 323 327 326 327 327 328 326 326 323 319 318 315 313 311 309 307 306 306 305 305 304 304 303 302 302 302 301 300 299 297 297 296 294 294 294 293 292 294
311 313 317 319 321 323 325 326 327 327 325 325 321 316 314 312 310 308 307 306 306 305 305 304 303 303 303 303 303 302 300 298 297 297 296 295 295 294 293 293 291 292 289
310 311 313 318 321 323 325 327 324 322 321 317 314 309 307 307 307 306 305 305 304 303 302 302 302 303 302 302 300 299 296 293 293 294 295 294 295 295 293 291 289 289 289
311 312 312 317 322 324 324 322 320 316 314 309 306 307 307 305 305 304 303 301 300 300 301 301 301 300 301 291 292 293 292 292 292 291 292 292 293 292 291 290 290 290 288
311 313 314 315 324 320 317 313 312 311 308 306 306 306 303 301 300 300 300 299 298 298 298 299 299 300 299 292 292 290 291 291 290 290 290 291 293 292 292 291 290 288 288
313 315 316 321 318 315 313 312 311 308 305 305 303 302 301 300 299 298 298 297 298 297 298 300 299 297 296 293 291 289 290 289 290 291 291 290 289 290 288 286 285 287 288
314 316 319 318 316 312 311 307 306 305 303 302 302 301 299 298 298 298 299 299 300 300 298 298 296 294 291 289 288 289 289 290 288 289 288 288 286 287 288 284 283 284 285
315 316 317 314 312 311 308 306 303 302 301 302 302 302 301 299 298 298 300 301 300 299 297 294 294 291 288 288 287 287 285 283 283 285 286 286 285 286 286 283 283 282 283
313 315 316 313 312 310 308 305 304 302 304 303 301 299 298 298 300 300 299 297 295 294 289 288 288 289 288 286 287 286 283 281 281 281 282 283 286 286 286 286 284 283 284
310 312 312 311 311 310 308 305 303 303 301 299 299 300 300 299 298 296 294 294 293 289 287 285 285 286 286 284 284 284 283 282 280 280 281 282 284 285 285 285 285 286 284
308 310 309 307 307 307 306 303 300 301 300 299 298 296 296 296 295 294 292 289 288 286 285 284 284 284 284 282 283 283 282 282 279 280 281 283 283 283 283 285 285 285 283
307 307 305 303 302 303 303 301 301 300 298 296 295 294 292 291 290 289 288 287 286 285 284 283 282 282 282 280 279 279 278 280 279 278 278 279 280 281 283 282 283 282 285
305 304 303 301 299 300 300 300 299 298 296 294 291 289 288 288 286 283 283 283 281 282 283 282 282 279 278 277 277 277 277 276 277 275 277 277 278 278 278 279 280 280 281
303 302 301 299 297 297 296 296 296 294 291 289 287 286 286 285 285 283 281 283 281 281 280 279 280 280 278 277 277 277 278 278 278 276 275 274 271 272 275 276 276 277 277

GFSMW_sfc_thetae_081.txt.gz
Theta_e
314 315 315 315 316 316 315 315 314 314 313 311 309 311 312 319 320 322 325 325 325 326 325 321 319 316 312 309 309 306 305 304 305 303 303 304 304 301 300 301 300 301 301
311 313 313 314 314 313 314 315 314 314 313 312 311 314 317 319 322 324 324 325 325 325 324 319 318 317 312 309 308 307 306 306 305 302 300 297 299 301 302 301 301 299 300
311 312 314 314 313 312 313 314 315 315 315 316 317 319 318 320 321 322 323 325 325 324 324 321 318 316 312 308 307 307 307 304 305 304 301 296 293 294 298 300 299 299 298
314 314 315 314 313 313 315 314 315 315 317 320 320 319 317 318 320 320 321 323 322 322 322 322 319 316 312 310 309 310 307 305 303 303 305 301 298 293 291 295 295 297 298
313 313 315 316 316 314 315 316 319 320 321 322 322 321 316 320 320 321 321 320 320 320 321 320 317 315 311 310 311 309 307 305 301 299 299 300 298 296 292 290 292 295 296
313 314 315 317 317 316 317 318 319 321 323 324 324 321 318 320 320 321 320 318 316 316 318 319 317 314 313 311 311 308 305 303 302 301 300 299 294 295 291 289 290 290 292
313 314 314 315 316 316 317 318 317 318 324 324 324 324 321 320 320 320 320 316 316 315 316 317 315 315 314 311 310 308 304 302 300 300 300 300 298 296 294 292 291 290 290
314 314 315 316 317 317 316 316 317 317 322 324 324 325 322 322 321 322 321 319 317 316 315 315 314 314 312 310 308 306 303 303 301 300 300 300 300 299 297 294 291 287 288
313 314 315 317 318 318 318 317 318 320 322 323 325 325 325 322 322 322 321 318 317 316 314 315 314 310 308 308 305 304 302 302 302 301 301 301 300 299 298 297 293 290 284
313 314 315 316 318 319 320 321 322 322 322 322 325 325 325 324 322 321 319 318 317 317 315 312 308 306 304 303 302 301 302 302 301 303 302 300 299 299 298 296 294 291 289
308 310 316 317 318 319 320 321 321 321 322 322 326 326 325 323 322 321 319 318 317 314 311 306 304 304 305 304 303 302 302 302 301 302 301 299 298 297 296 294 293 292 290
308 309 310 313 318 318 319 320 322 322 323 324 324 326 325 323 322 321 319 315 310 308 306 306 306 306 304 304 303 302 303 302 300 300 299 298 298 295 294 293 292 291 291
305 308 310 311 318 319 319 320 322 323 324 322 323 322 322 320 318 315 313 311 308 307 307 306 305 305 305 305 304 303 302 301 300 299 296 296 294 292 291 291 290 290 292
305 306 309 311 313 318 320 321 322 323 323 324 319 317 316 315 313 310 309 309 307 306 306 306 305 305 305 304 303 302 300 299 297 296 294 293 292 291 290 290 289 290 288
305 304 309 310 312 315 319 321 320 319 317 316 315 312 310 310 308 308 307 306 307 306 305 304 303 304 303 303 301 301 296 291 290 291 292 291 292 294 291 289 287 286 284
305 306 307 312 315 318 318 317 315 311 311 309 307 307 307 307 306 305 305 304 302 303 303 303 303 301 302 296 294 292 290 290 289 288 288 289 291 290 290 290 289 287 283
307 308 310 317 317 314 312 309 308 309 307 306 306 306 305 303 302 302 301 301 301 301 301 301 300 299 298 291 291 290 289 288 287 286 286 288 291 289 288 287 286 285 287
308 309 315 312 310 309 308 307 306 306 305 304 304 303 301 300 301 301 300 299 299 299 299 298 298 297 293 291 290 289 288 287 288 288 287 285 285 285 286 284 281 281 283
308 311 312 309 308 306 307 305 304 304 304 303 302 301 300 299 299 298 298 298 297 297 297 298 295 291 289 288 288 288 286 286 284 286 286 285 283 285 287 283 281 282 282
310 310 310 309 306 304 305 303 302 302 302 302 301 300 300 299 298 298 298 298 299 298 294 292 290 288 285 287 287 286 283 282 281 282 283 284 284 285 285 282 281 279 281
310 310 309 306 305 305 304 301 301 300 302 302 302 300 300 298 298 299 299 297 293 290 286 285 286 285 284 285 286 285 281 280 280 280 280 281 283 284 284 284 281 281 283
308 309 308 306 305 304 303 301 301 303 303 301 298 297 297 298 299 296 294 293 290 287 285 285 284 283 282 284 284 283 282 282 280 279 280 280 281 282 282 283 284 285 283
305 307 305 305 304 303 303 300 297 297 297 297 297 297 296 295 294 292 290 288 288 286 285 284 283 282 282 281 281 281 280 280 279 279 279 279 280 281 280 282 282 280 279
303 303 302 300 299 300 298 297 297 297 296 294 293 292 289 288 287 288 287 285 284 284 283 283 283 282 280 278 278 278 278 278 278 277 277 277 278 279 278 278 278 278 277
300 300 297 295 295 296 295 296 296 296 293 289 288 287 286 284 282 283 283 281 281 282 280 280 281 279 277 277 278 277 277 276 278 275 275 276 276 276 276 276 276 276 276
298 296 295 290 284 284 285 288 291 290 287 286 285 284 283 283 282 280 280 282 281 281 281 281 280 279 279 277 277 278 278 278 278 275 273 270 268 269 273 272 272 273 273

GFSMW_sfc_thetae_084.txt.gz
Theta_e
314 315 316 317 316 316 315 315 315 315 314 314 313 313 312 315 318 319 320 320 319 322 322 321 317 315 312 309 307 304 304 302 303 302 302 302 302 299 298 298 298 299 300
311 313 311 314 315 315 314 314 314 312 312 312 313 313 312 314 316 319 320 322 323 323 324 320 319 316 312 308 307 305 304 303 303 301 299 297 299 300 300 299 299 297 299
309 310 311 311 311 312 312 312 312 312 311 311 309 312 313 315 316 317 318 320 322 323 324 320 319 316 313 309 307 305 305 303 303 302 300 294 293 293 296 298 298 298 298
311 310 311 312 310 311 312 313 313 312 312 312 310 310 310 311 315 317 318 320 322 323 324 322 318 316 312 308 307 308 305 304 302 302 303 299 296 292 291 294 295 296 297
310 310 311 313 312 312 312 313 313 313 313 313 312 312 314 316 316 317 318 320 320 322 322 321 318 315 312 309 308 307 307 305 303 301 300 298 297 295 292 290 292 294 294
310 312 313 315 313 313 312 313 312 313 313 314 315 315 315 316 317 319 319 319 320 320 319 321 317 315 312 311 311 309 306 304 302 300 300 297 295 293 292 292 291 291 293
310 311 313 313 314 312 312 312 312 313 314 315 316 317 319 317 317 319 319 318 317 317 318 318 315 313 313 310 311 310 306 304 301 300 300 298 297 297 295 293 290 289 290
311 312 313 314 314 313 311 312 313 314 317 318 318 320 321 319 320 320 321 319 319 319 320 318 315 313 312 311 309 305 304 303 303 301 301 300 299 299 298 295 291 286 286
312 312 313 314 315 315 311 312 314 316 318 320 321 322 323 321 319 320 321 321 321 320 316 317 314 311 309 307 306 304 303 303 302 301 302 301 302 301 299 297 293 289 284
311 313 313 314 315 317 316 315 316 316 317 319 322 323 323 322 321 320 320 320 319 317 315 315 311 306 305 305 304 303 302 303 302 302 301 302 301 300 300 296 294 291 288
311 312 314 315 316 317 317 317 317 317 317 317 320 322 323 323 322 320 320 319 317 316 315 312 308 306 306 306 306 304 303 302 301 302 302 301 301 300 296 294 293 291 289
312 313 314 315 315 317 318 318 317 317 318 320 320 321 322 323 321 320 319 317 315 314 311 309 307 306 306 306 304 303 302 301 301 302 301 301 301 297 295 292 291 290 289
305 309 312 313 314 316 317 318 319 319 321 321 320 321 321 320 319 320 318 317 313 310 309 308 307 306 305 305 304 304 303 302 302 301 300 299 297 293 290 290 289 289 291
303 305 306 310 314 315 316 317 318 320 320 320 320 320 320 320 320 317 317 315 312 309 308 309 307 306 306 305 305 304 302 302 301 299 297 295 292 290 288 288 287 288 285
303 302 306 307 313 314 316 317 318 319 320 320 317 316 315 317 315 313 313 310 309 308 308 306 306 306 306 305 304 303 301 298 295 293 291 290 291 293 290 287 284 283 282
302 303 306 308 310 314 314 315 313 314 316 315 312 309 308 309 309 308 307 307 306 306 305 304 304 303 304 296 297 297 296 293 290 288 287 289 290 290 289 288 288 285 281
303 304 307 310 315 314 313 312 310 310 310 308 307 307 306 304 304 304 304 303 303 303 303 303 302 301 300 294 293 290 290 289 287 285 287 288 288 286 285 285 285 284 286
306 313 311 308 307 307 308 309 309 308 307 306 305 305 304 302 302 302 302 301 302 301 301 300 300 299 295 290 290 289 286 287 288 287 285 284 282 283 284 283 282 282 283
307 310 308 306 305 306 306 306 306 306 306 304 304 304 303 301 301 300 299 300 300 300 299 299 296 292 290 289 289 288 287 285 284 284 284 283 282 285 286 282 281 281 281
310 307 306 305 304 303 304 305 304 304 303 303 302 301 301 301 299 299 299 299 298 296 294 291 290 288 287 288 287 286 283 281 281 282 283 283 282 283 284 281 280 279 280
308 307 306 303 302 303 303 300 300 300 303 302 301 301 301 300 300 299 298 297 293 289 288 286 286 286 286 286 286 284 281 281 280 280 280 280 281 282 282 283 281 281 283
306 306 304 302 302 302 301 298 297 300 301 301 299 300 299 298 298 296 294 292 289 286 285 284 283 283 283 284 284 283 282 281 280 279 279 280 280 281 282 282 282 281 280
305 306 303 302 302 301 300 298 300 300 298 296 296 296 295 294 293 292 291 289 288 286 285 283 282 280 280 280 281 280 280 279 278 279 278 279 280 280 280 280 279 278 276
302 304 302 299 296 296 295 295 296 295 293 291 288 287 287 286 286 286 286 285 284 284 284 283 281 280 279 277 278 278 278 278 278 278 278 278 278 278 278 278 278 277 276
297 296 290 286 286 289 292 293 292 289 287 286 285 284 284 283 282 281 282 281 282 283 282 281 281 277 277 277 278 278 278 277 278 276 276 276 276 275 275 275 275 275 274
287 285 284 283 283 284 285 287 288 287 285 284 283 283 283 282 281 281 280 282 282 282 282 281 280 280 279 278 278 279 279 278 278 276 273 271 270 271 272 272 272 272 271

GFSMW_sfc_thetae_087.txt.gz
Theta_e
312 315 316 316 315 315 315 315 314 316 316 315 314 314 314 316 317 319 321 320 322 323 319 317 315 313 312 310 305 303 302 301 301 300 299 300 300 298 297 298 298 299 301
310 313 315 314 314 314 314 314 315 315 315 314 313 313 314 315 316 319 319 321 319 321 321 318 316 313 310 307 305 304 302 302 302 299 298 296 298 299 299 296 297 296 298
307 311 312 313 314 313 313 314 314 313 314 314 313 312 313 314 314 317 317 318 320 320 322 321 319 316 313 309 306 304 304 302 301 301 300 294 294 294 295 297 297 297 296
308 310 310 310 311 313 312 312 312 312 310 310 310 310 309 309 312 312 317 315 319 319 321 321 319 315 312 308 307 306 304 303 301 301 301 298 296 293 292 294 294 295 297
308 309 309 310 311 312 311 311 311 311 311 310 309 308 308 308 312 314 315 315 318 321 321 321 318 316 313 311 308 306 306 307 304 302 301 298 295 293 291 289 292 292 294
308 309 310 311 310 311 310 310 311 311 311 310 310 308 309 311 312 314 314 315 316 318 319 320 317 317 314 310 309 309 309 308 306 303 302 300 298 295 293 291 292 291 293
309 309 308 309 310 309 310 311 311 311 312 310 310 310 310 312 313 314 315 315 315 315 317 317 316 315 314 312 311 310 308 307 304 302 299 300 298 298 297 295 292 290 292
309 309 310 310 312 311 310 310 311 311 312 311 311 311 312 313 315 315 316 317 317 318 318 317 318 316 313 311 308 307 306 305 304 302 302 301 301 300 299 296 293 290 290
308 309 310 312 312 313 312 311 311 311 312 312 312 312 313 314 315 317 318 318 319 319 318 318 317 314 312 310 307 305 305 304 304 303 302 301 301 301 300 298 296 293 288
310 310 310 312 314 314 314 313 312 312 312 313 313 313 314 316 317 318 318 319 320 319 317 315 315 312 309 308 307 306 305 304 303 303 301 302 302 301 301 298 297 294 292
309 311 312 313 314 315 314 313 312 312 312 314 315 316 317 319 320 320 319 319 319 316 315 314 314 310 308 307 307 305 305 304 303 302 302 301 302 301 300 299 296 293 290
309 311 312 313 313 314 315 313 312 312 314 316 317 317 319 320 320 320 320 319 317 316 315 313 311 310 308 307 307 304 304 304 302 302 301 301 302 299 299 296 294 292 289
307 309 311 312 313 313 314 316 315 313 315 316 317 316 316 319 319 320 317 316 317 315 313 313 311 309 308 307 307 306 305 304 303 302 301 301 300 298 295 294 292 289 290
305 307 308 311 313 314 315 315 316 316 316 316 316 316 316 318 319 319 316 317 316 316 314 312 310 309 308 307 305 305 303 303 302 302 301 300 297 296 293 290 287 287 285
300 303 306 309 311 311 313 315 317 317 317 316 315 316 317 317 316 316 317 317 318 317 313 311 309 309 307 306 305 305 303 302 300 298 297 296 294 292 290 287 284 283 282
301 301 304 305 308 310 311 313 314 315 316 316 316 312 312 314 314 313 313 310 309 309 310 309 307 305 306 297 297 300 300 298 295 291 290 290 291 290 289 288 287 284 281
301 301 300 305 307 309 310 309 309 310 311 311 309 308 309 307 306 307 307 306 306 306 306 305 305 304 304 298 296 293 295 293 290 288 288 288 287 286 285 285 285 284 285
301 307 309 308 307 310 309 309 310 308 308 307 306 306 306 305 305 304 304 303 304 303 303 302 303 300 299 293 292 290 290 288 288 287 287 285 284 285 285 283 282 282 283
304 308 306 305 307 307 308 307 307 307 307 306 306 305 304 303 302 301 300 301 301 300 300 300 297 295 291 289 288 289 287 286 285 285 285 284 282 284 284 281 280 280 281
307 304 303 305 305 306 308 307 305 305 304 304 303 303 302 302 300 300 300 301 300 297 294 291 291 289 288 288 288 287 285 283 282 282 282 282 281 282 282 281 280 279 281
304 304 303 303 303 304 305 303 303 302 303 302 302 301 301 300 300 299 298 294 292 289 286 285 285 286 286 285 286 285 283 282 281 280 280 280 280 281 281 282 281 280 280
304 303 302 301 300 300 300 300 300 301 301 301 300 299 298 298 297 294 292 290 288 285 284 283 282 282 283 284 284 283 282 281 280 279 279 279 280 280 281 281 280 280 279
304 303 302 300 299 299 299 298 300 300 297 293 290 290 290 290 291 290 289 287 287 285 283 282 280 279 280 280 281 281 280 279 278 279 278 279 279 280 280 279 278 278 276
302 301 296 292 292 293 294 296 294 291 290 288 287 286 285 285 285 285 285 284 284 284 284 282 280 279 279 278 279 278 278 278 278 278 278 278 278 279 278 277 277 276 275
291 290 288 287 287 289 288 289 289 288 286 285 284 283 282 281 281 281 282 281 282 284 283 282 281 279 278 278 278 278 278 278 278 277 276 276 276 275 275 274 274 274 273
286 285 284 284 284 284 284 285 286 286 284 283 282 282 282 282 282 281 280 283 282 282 282 281 280 280 280 279 279 279 279 279 278 276 274 271 271 271 272 272 271 272 271

GFSMW_sfc_thetae_090.txt.gz
Theta_e
312 315 316 316 316 315 315 315 316 316 317 317 317 316 316 317 317 321 321 322 322 320 318 316 315 313 313 310 306 303 303 301 301 300 300 300 299 298 297 301 302 302 303
311 313 314 314 314 314 315 314 315 315 315 317 317 316 316 315 317 319 320 321 323 322 319 317 315 313 311 308 306 304 302 302 302 299 298 297 299 300 300 297 299 299 299
306 310 313 313 313 313 313 314 314 315 315 315 314 314 314 314 314 316 317 318 319 321 321 318 316 314 312 310 306 305 304 301 301 301 300 294 295 296 297 298 297 297 297
307 309 311 312 313 313 314 315 314 315 315 314 312 313 313 310 311 313 316 316 319 318 320 319 317 315 312 309 308 307 306 304 301 301 302 299 298 295 294 295 296 298 298
307 307 311 312 313 314 313 314 314 313 313 312 312 309 310 311 311 313 314 314 316 318 318 319 317 315 315 313 310 308 306 306 304 302 301 300 297 295 294 292 294 294 295
307 308 310 311 311 313 313 311 312 311 310 309 308 308 307 307 308 309 311 311 312 314 316 319 318 319 316 313 311 310 308 307 306 306 304 301 299 297 296 294 293 293 296
307 307 307 309 309 310 311 311 311 310 310 309 309 308 308 308 308 309 311 311 312 313 314 315 315 315 315 313 312 309 310 308 306 306 304 302 301 300 299 298 295 296 295
307 307 308 309 309 309 310 310 310 310 310 310 309 309 309 309 310 310 311 312 314 314 314 315 317 316 315 314 312 312 310 309 308 305 303 302 301 301 300 299 295 291 291
306 307 309 309 310 310 310 310 310 310 310 310 310 309 309 309 309 310 312 314 314 316 314 314 315 316 315 314 312 311 308 307 306 304 304 303 301 302 302 299 297 296 290
306 307 308 309 311 312 311 310 311 310 311 311 311 310 309 310 311 310 312 314 315 315 315 314 316 315 312 310 310 309 308 307 306 306 304 304 303 302 301 299 297 296 295
306 307 309 310 311 313 313 311 311 311 310 311 311 311 310 311 311 312 313 315 315 316 316 316 315 313 310 309 309 307 307 306 306 305 305 304 304 302 301 300 298 295 294
305 308 308 309 310 311 312 312 312 311 312 313 313 312 312 312 312 313 314 315 315 316 316 316 315 315 311 309 309 308 308 306 305 305 304 304 303 301 301 299 296 296 293
305 305 308 309 310 312 312 312 312 312 312 313 312 312 313 314 314 315 316 317 317 317 315 317 316 315 313 311 311 312 309 307 307 306 305 304 301 300 298 298 296 294 293
303 305 306 309 311 312 313 313 313 312 312 311 311 311 313 314 315 317 317 318 317 318 316 315 315 314 312 311 310 309 308 307 307 305 304 303 301 300 297 296 294 292 290
300 303 305 307 310 311 312 313 314 314 312 311 310 311 312 313 313 315 315 315 317 318 318 317 315 312 311 309 308 307 306 305 303 301 300 299 298 296 294 293 289 288 285
299 300 303 306 307 310 311 312 313 313 314 313 311 312 312 312 311 313 314 316 317 316 316 311 311 309 309 301 298 303 304 303 299 295 293 292 292 290 289 288 287 287 285
300 300 300 303 304 306 307 307 308 310 311 312 310 309 309 311 312 312 312 312 312 310 309 309 309 308 308 296 297 296 301 299 294 290 289 289 289 287 286 286 285 285 285
299 300 302 304 306 308 308 309 310 309 309 308 308 308 308 307 307 308 308 305 305 305 303 303 302 300 296 292 292 291 292 290 289 289 288 285 285 285 285 284 284 283 283
301 305 305 307 307 307 308 308 307 307 307 306 306 307 306 304 303 303 301 302 301 300 298 297 295 292 290 289 289 289 288 286 285 285 285 284 283 285 285 282 281 281 281
305 304 306 306 306 307 308 307 306 305 304 304 303 304 303 302 300 300 300 300 298 294 292 290 289 288 287 288 287 287 284 282 282 282 282 282 282 282 282 281 280 279 281
303 303 304 303 304 306 306 303 302 300 302 302 301 301 301 300 299 296 295 292 289 287 285 283 284 284 285 285 286 286 283 282 282 280 279 280 280 280 281 282 281 280 280
303 303 302 302 302 304 303 300 298 300 299 296 295 294 295 295 293 291 290 288 286 284 283 282 281 282 283 284 284 283 282 282 280 279 279 279 280 280 281 281 280 279 278
302 303 301 299 299 300 300 297 295 293 292 291 290 290 290 290 290 289 288 286 285 284 282 281 280 279 280 280 282 281 280 279 278 279 278 279 279 280 280 279 278 277 276
297 296 294 293 292 294 293 292 292 292 289 287 286 285 284 284 285 285 285 285 285 283 282 281 279 279 279 279 279 279 279 279 279 278 278 278 278 279 278 278 277 276 275
289 288 287 286 285 286 286 288 288 286 283 282 281 282 283 283 282 282 282 282 282 284 282 281 281 279 277 278 279 279 278 278 278 277 277 277 276 276 276 275 274 274 273
286 284 283 282 282 283 283 284 285 284 283 283 283 283 283 283 281 281 281 283 283 283 283 282 281 280 280 280 280 280 280 279 279 276 274 273 272 272 273 272 272 272 271

GFSMW_sfc_thetae_093.txt.gz
Theta_e
314 316 317 317 317 317 317 317 316 318 318 318 318 319 319 321 321 322 323 324 325 324 323 322 322 321 318 316 314 312 311 309 310 307 306 306 307 307 308 312 312 312 313
312 314 314 316 315 315 317 317 316 317 318 319 319 319 319 320 321 322 323 323 324 323 321 321 321 321 319 317 314 313 310 310 311 307 307 303 306 307 307 307 310 312 311
311 313 314 314 315 315 316 316 316 316 318 319 318 316 316 316 320 321 321 324 324 321 322 322 321 321 320 318 315 313 312 310 309 311 310 304 303 306 308 308 306 309 310
312 313 314 314 314 316 316 316 317 316 316 317 317 317 315 315 317 320 320 320 323 322 322 321 321 321 321 319 318 317 315 314 309 309 309 309 309 305 304 306 308 307 307
313 312 314 316 316 317 316 316 316 316 316 317 317 316 314 316 314 317 320 318 319 319 320 322 321 323 321 322 320 317 315 316 315 311 309 307 307 306 306 306 304 304 301
312 313 315 316 315 316 316 316 315 314 315 314 316 317 315 315 313 314 315 317 318 320 320 320 322 324 324 322 320 320 317 316 315 314 311 307 306 304 302 303 298 300 304
312 312 312 313 313 313 315 315 315 314 313 313 314 314 315 316 316 316 317 316 317 318 320 322 323 324 324 324 323 321 318 317 316 316 310 309 310 309 304 308 302 300 303
312 312 313 313 313 313 313 314 314 315 315 314 314 315 315 315 316 317 317 318 319 319 321 322 323 324 324 324 323 322 320 319 314 311 309 311 311 311 310 305 302 296 298
312 313 313 313 313 312 312 312 313 313 314 315 315 314 315 315 314 316 317 317 318 319 321 322 322 322 323 323 323 322 321 320 319 315 312 313 314 313 312 309 305 304 298
310 312 313 314 314 315 313 312 313 312 314 316 316 315 315 315 316 316 316 317 319 320 320 321 321 322 322 322 321 321 321 317 317 314 311 310 312 311 311 309 303 306 304
310 311 313 314 315 316 316 314 313 315 315 316 316 316 315 315 316 316 317 318 319 319 319 320 321 321 322 320 319 318 317 311 311 309 309 307 309 306 304 305 303 302 303
311 312 313 314 314 315 315 315 315 315 316 317 316 316 317 315 316 316 317 319 318 321 321 320 320 321 320 317 313 312 313 310 310 308 307 307 307 305 305 306 303 304 301
310 312 313 313 314 315 315 316 316 316 317 316 316 316 316 315 314 316 317 318 318 319 319 320 320 319 318 315 317 316 314 311 310 310 308 308 307 305 305 306 306 304 297
308 311 313 314 314 315 316 316 316 317 317 316 316 316 316 316 316 317 318 319 319 318 320 321 320 320 320 318 317 314 313 312 313 314 310 308 308 305 306 304 300 298 294
303 308 311 313 315 315 316 317 317 317 317 316 316 316 317 318 318 319 319 320 321 321 322 322 321 320 319 316 314 313 313 312 310 309 308 306 306 302 302 300 296 293 290
305 306 309 312 313 315 316 316 317 317 317 315 315 316 316 316 317 318 319 320 321 322 321 319 318 317 315 304 299 305 309 309 307 303 295 296 295 293 290 291 290 291 288
305 305 305 309 312 314 315 316 316 318 317 315 315 315 315 315 316 317 318 318 319 320 318 317 315 312 308 298 297 294 302 299 295 292 291 290 289 288 287 286 286 286 286
305 305 304 307 310 311 312 313 314 316 316 316 314 314 314 313 313 315 315 312 308 306 304 301 300 296 292 291 292 291 292 290 289 289 288 287 286 286 285 285 284 284 285
304 307 308 310 310 310 311 311 311 310 310 310 310 310 310 308 306 305 303 302 300 297 295 294 292 290 288 288 289 289 287 284 284 285 285 285 284 284 285 283 282 282 283
307 307 308 308 309 309 311 309 307 305 303 303 303 304 304 302 301 300 298 295 293 290 289 287 287 287 287 287 287 286 284 282 281 282 281 282 282 282 282 282 282 281 282
304 306 307 306 307 308 307 303 302 300 301 301 301 300 299 297 296 295 293 290 288 286 285 283 284 284 285 286 286 286 284 282 281 280 279 280 281 281 281 282 282 282 282
303 304 303 303 304 303 302 299 296 297 296 296 294 294 293 293 293 291 289 288 286 284 283 281 281 282 283 283 284 283 283 283 281 280 280 280 281 281 282 282 281 279 279
300 300 299 297 298 300 299 294 293 293 292 290 289 288 288 288 289 288 287 285 285 283 282 281 280 279 280 280 282 281 281 280 280 280 279 279 279 280 281 280 279 278 279
295 293 291 289 288 290 292 291 291 290 289 288 287 286 286 285 286 285 285 285 284 283 282 281 279 279 279 279 280 281 281 280 280 280 280 279 279 280 280 280 279 279 278
289 289 287 286 285 286 287 288 288 289 287 287 286 285 284 283 282 282 283 282 282 283 283 283 283 282 280 280 281 281 280 280 279 280 279 279 278 278 278 278 277 277 276
286 285 285 285 284 285 286 287 288 288 287 285 285 284 284 283 282 282 281 283 282 282 282 282 282 281 281 280 280 279 279 278 278 278 277 276 276 275 275 275 275 274 273

GFSMW_sfc_thetae_096.txt.gz
Theta_e
322 322 322 323 320 322 321 319 320 322 322 321 320 321 320 323 324 325 326 326 325 326 328 325 325 325 322 322 321 320 319 318 317 313 313 313 313 314 314 316 319 319 319
320 320 320 322 321 320 321 319 319 320 321 321 320 321 322 322 323 324 324 325 326 327 326 325 325 325 323 322 321 320 317 317 315 311 311 306 309 311 312 314 315 317 316
319 319 318 318 320 318 320 320 320 319 320 321 319 318 319 321 321 322 322 323 325 327 327 325 325 326 325 322 322 319 319 315 313 315 312 309 308 312 313 312 313 315 315
319 320 320 317 317 318 323 323 321 319 320 321 320 318 317 315 319 322 323 324 324 323 325 326 326 326 325 324 322 320 320 319 314 314 314 317 316 310 308 313 313 313 312
319 319 320 319 318 319 320 321 322 319 319 321 320 318 317 317 320 321 324 324 323 324 322 323 322 324 325 324 325 322 322 321 319 316 315 314 314 314 309 309 310 312 313
320 321 321 321 321 321 321 320 320 318 318 321 322 319 319 316 317 318 319 323 323 326 324 323 323 324 325 325 326 327 325 323 322 322 320 317 315 313 312 306 306 309 311
319 320 319 319 321 320 320 320 319 317 320 322 320 319 321 320 317 318 319 321 320 320 321 323 323 323 325 326 327 327 326 326 323 322 321 317 317 317 314 309 307 304 307
319 320 320 320 320 321 319 319 319 319 318 316 318 320 322 319 320 322 321 321 320 321 324 324 323 323 322 327 328 328 327 327 326 325 324 322 322 315 310 308 305 303 305
319 320 321 321 320 321 320 319 320 318 319 319 318 318 321 319 320 322 322 321 322 322 324 325 325 325 325 326 327 326 326 327 326 326 325 321 317 315 317 312 309 306 302
317 320 321 321 321 321 322 321 321 320 321 320 321 320 320 321 321 322 321 322 322 322 322 323 324 324 324 325 325 325 325 324 326 325 324 323 321 320 319 314 310 309 306
316 319 321 322 322 321 321 319 319 320 320 322 322 322 321 321 322 321 321 321 322 322 322 322 323 323 323 324 325 324 324 323 324 325 323 321 320 317 313 311 310 306 306
317 318 320 321 321 321 321 319 316 318 320 321 322 322 323 322 322 322 321 322 321 323 322 323 322 322 322 324 325 323 322 322 321 319 316 314 313 312 311 308 307 306 306
316 318 319 320 321 321 321 321 320 320 321 321 322 322 322 322 321 321 321 322 322 322 322 322 322 322 323 323 324 323 320 318 319 320 316 314 311 309 309 308 306 308 307
314 317 318 319 320 321 321 321 321 322 322 322 321 321 321 322 322 322 322 323 322 321 321 322 322 322 322 322 322 321 321 323 323 321 314 313 312 309 309 308 306 306 304
311 313 317 319 320 321 322 322 323 323 323 322 321 321 322 323 322 322 322 322 322 322 321 322 322 323 324 324 324 322 320 317 315 314 312 313 309 302 303 306 305 303 297
312 313 314 317 320 321 321 322 323 323 323 322 321 322 322 322 322 322 322 322 322 323 323 323 324 323 321 304 300 306 315 311 308 307 297 295 294 291 290 289 288 291 291
312 313 313 314 318 320 321 322 323 324 323 322 322 322 322 321 321 321 321 320 321 322 320 318 315 303 296 292 297 294 301 296 293 292 291 290 289 289 287 287 286 286 286
311 312 314 313 314 320 322 323 323 323 322 322 321 321 320 320 320 320 319 317 310 306 301 297 295 292 290 290 291 290 290 288 287 287 287 285 285 286 286 286 284 284 284
310 312 313 314 316 316 319 320 320 321 320 316 317 318 318 314 309 305 304 301 297 292 290 290 289 288 287 287 288 288 285 284 283 284 284 284 283 284 286 284 283 283 283
312 313 314 315 315 315 316 312 310 308 305 305 304 304 303 301 298 295 293 292 290 288 287 286 287 287 287 287 287 286 285 283 282 282 282 282 282 282 283 283 283 282 283
309 310 310 309 310 311 307 303 302 300 300 299 298 296 296 294 293 291 290 288 286 285 284 283 284 284 285 286 286 286 284 283 282 281 280 281 281 281 281 282 284 283 284
304 306 304 304 306 306 302 297 295 295 295 293 292 292 292 291 290 289 288 286 285 284 283 282 281 282 283 284 284 284 283 283 282 282 283 282 281 281 282 283 281 280 281
297 295 294 295 296 298 296 292 292 293 292 292 291 290 289 289 289 288 287 286 285 284 282 281 280 280 281 282 282 282 282 281 283 283 281 280 280 281 282 281 279 279 282
293 293 291 290 290 292 292 292 293 293 292 290 290 290 288 287 287 286 285 285 285 283 283 282 281 281 283 283 284 283 284 282 283 282 282 281 281 280 281 281 281 281 280
291 291 290 289 289 291 292 294 295 294 291 289 289 288 286 285 283 283 284 283 283 285 284 283 283 282 280 280 280 280 280 281 280 281 282 281 280 279 280 280 280 280 278
288 288 288 288 288 290 291 292 294 293 290 288 288 288 287 286 284 282 280 281 281 281 281 281 281 280 279 279 278 278 277 277 278 279 277 277 277 276 276 276 275 276 275

GFSMW_sfc_thetae_099.txt.gz
Theta_e
324 326 326 327 326 324 324 322 324 324 325 322 323 323 323 325 327 329 328 326 325 325 325 322 327 327 324 323 324 325 325 321 323 317 316 317 317 318 318 321 322 321 321
322 324 325 325 324 322 324 320 322 323 323 323 322 322 322 325 326 327 326 325 324 324 324 324 326 325 323 324 325 326 321 321 321 315 314 309 311 314 315 316 319 323 320
320 322 323 324 325 321 322 323 322 323 322 321 322 321 321 322 322 323 323 323 322 322 322 324 325 325 325 323 325 326 323 318 318 322 315 309 308 312 314 315 315 317 319
319 323 323 322 324 323 325 325 323 322 321 322 320 321 318 317 319 321 322 323 323 322 323 324 325 326 327 324 324 324 324 323 316 316 317 320 317 313 310 313 314 314 316
319 322 323 323 324 325 323 323 323 322 323 322 323 319 318 319 320 321 321 322 323 323 324 325 327 328 326 328 327 326 324 323 322 317 316 316 316 318 312 310 311 315 316
320 322 324 324 323 324 322 321 320 320 321 321 322 320 318 318 320 319 318 319 321 322 323 323 326 327 328 327 326 326 324 324 325 323 322 317 315 313 313 311 312 310 313
320 322 322 322 323 322 321 322 320 318 320 320 320 319 318 318 318 320 320 319 319 320 320 321 322 324 327 326 327 325 326 326 324 324 323 324 322 322 318 312 309 310 312
320 322 323 323 323 324 324 322 320 319 320 321 322 322 322 319 317 321 322 320 321 324 322 320 320 321 324 323 326 328 325 326 327 327 327 325 324 324 321 317 310 307 311
320 321 323 324 323 324 324 324 323 322 321 321 323 323 323 321 320 320 321 323 324 324 325 325 323 323 323 324 322 324 324 326 327 328 328 326 326 326 326 323 316 310 305
319 321 322 324 324 324 325 325 324 323 323 322 322 321 322 323 323 324 324 325 325 324 324 325 324 324 324 324 325 325 326 325 326 326 326 325 326 324 324 321 317 314 310
317 320 322 324 325 325 324 324 324 323 323 323 323 323 323 323 323 324 325 324 325 325 324 324 324 325 325 326 326 326 325 324 325 326 325 325 326 325 324 319 317 314 311
318 320 322 324 324 323 323 323 324 323 324 324 323 323 323 323 322 323 324 326 325 326 325 324 322 323 324 325 325 325 324 324 324 325 325 324 322 318 318 320 315 313 312
318 319 322 322 323 323 323 323 323 323 323 323 324 324 324 324 323 323 325 325 325 324 324 324 324 324 325 325 325 325 325 325 325 325 324 321 317 316 317 316 312 311 310
315 318 320 322 323 324 324 323 323 323 323 322 322 323 324 324 324 325 325 326 326 324 323 325 325 326 323 323 324 323 324 324 324 324 320 319 318 316 314 313 310 309 307
313 316 319 321 323 324 324 324 325 324 323 322 322 322 324 325 325 324 325 324 324 324 324 323 323 323 323 322 323 322 320 320 319 319 309 295 294 291 292 299 303 304 303
311 314 317 319 321 322 324 324 325 325 325 323 323 323 324 324 324 324 324 323 323 323 323 322 322 322 309 292 295 303 311 302 299 296 292 291 290 288 288 287 287 286 289
311 313 315 317 320 323 323 324 325 326 325 324 324 324 324 323 323 323 322 322 322 321 307 301 298 294 293 291 292 292 292 290 289 288 288 287 288 288 288 286 286 285 286
312 314 315 316 318 323 324 325 325 325 324 324 323 324 324 323 323 321 312 303 299 295 293 291 290 288 289 289 288 288 287 286 285 285 285 285 285 286 286 286 285 284 284
314 314 316 316 317 319 323 324 324 324 324 323 323 323 323 316 307 301 296 293 291 289 288 289 288 287 287 287 287 286 285 283 283 284 285 284 283 284 286 285 284 284 284
315 316 317 318 318 320 322 323 321 316 307 306 304 304 302 298 294 291 289 289 287 287 286 286 286 286 286 287 287 286 285 283 282 283 283 283 282 282 283 284 284 284 284
313 315 316 316 315 314 310 304 301 298 298 297 295 294 293 291 290 288 287 286 285 284 283 283 284 284 285 285 286 286 285 285 284 283 282 282 282 282 283 283 283 281 283
308 309 309 307 305 304 301 296 294 295 294 293 292 291 290 290 289 287 286 286 285 283 282 282 281 283 283 284 283 283 284 285 284 283 283 283 282 282 282 282 281 280 281
298 299 298 296 297 297 295 292 292 293 291 290 289 289 289 289 289 287 286 285 285 283 283 282 282 282 284 284 283 283 283 282 283 283 281 282 283 283 282 280 279 281 281
294 294 293 291 291 292 293 293 293 292 291 289 288 288 287 286 286 286 287 287 286 285 284 283 282 282 281 281 283 283 283 283 283 283 283 282 281 281 282 282 282 282 280
292 292 290 290 291 293 293 293 293 292 289 288 288 286 285 283 283 283 283 281 282 285 282 282 282 280 278 278 279 278 278 279 279 282 281 279 278 278 278 278 278 278 277
290 289 289 290 292 292 292 293 294 293 291 289 288 286 285 283 281 280 279 280 280 279 280 280 279 277 277 277 277 277 276 276 278 279 277 276 275 275 274 274 274 274 273

GFSMW_sfc_thetae_102.txt.gz
Theta_e
321 326 326 327 326 326 324 323 324 325 325 323 323 323 323 325 328 330 327 327 326 325 322 322 323 323 324 323 324 321 317 317 319 313 311 311 313 313 314 316 316 317 318
320 324 325 326 324 322 322 322 324 323 324 324 323 323 323 324 326 329 327 327 325 324 320 321 321 321 321 322 321 318 317 318 318 312 309 304 307 310 312 311 315 316 316
319 322 323 324 323 321 321 321 322 323 324 324 323 322 324 324 324 325 325 325 324 323 322 322 322 320 320 320 319 320 318 315 315 314 311 306 303 305 308 309 310 312 315
315 322 322 323 322 321 322 323 322 322 323 323 323 320 319 318 321 324 324 323 324 322 322 323 322 321 321 319 320 321 319 317 312 313 315 313 312 307 302 307 308 309 311
315 321 322 323 324 322 321 322 323 322 322 322 323 321 318 319 320 321 320 321 321 320 320 321 322 321 321 321 320 319 319 319 315 313 312 311 311 312 307 305 304 308 310
316 321 323 323 323 324 321 321 321 320 322 321 322 321 319 319 318 319 318 318 318 319 319 319 321 321 321 321 321 321 319 319 318 316 314 312 309 307 307 306 306 306 309
318 320 321 320 321 321 320 320 319 318 321 320 322 320 319 320 318 319 319 317 317 317 318 319 320 320 320 321 322 321 320 319 319 319 317 316 314 315 312 309 307 307 308
319 319 321 321 321 321 320 319 319 318 319 320 320 320 319 320 319 319 319 319 318 318 320 320 321 321 321 321 321 321 322 321 320 319 318 318 318 317 316 312 308 306 308
317 319 322 322 321 321 320 321 319 318 319 320 320 320 319 319 319 320 320 319 320 321 321 320 320 320 320 320 320 320 320 320 319 318 319 318 320 319 318 317 315 311 306
317 319 321 322 323 323 323 321 322 320 319 321 321 320 320 319 318 321 320 319 320 321 320 319 319 318 318 319 319 319 318 318 318 319 318 319 320 320 320 320 319 316 312
316 319 321 323 323 324 323 322 321 321 320 321 321 321 320 320 319 318 320 321 321 321 321 321 320 319 319 319 318 317 317 317 318 319 319 318 320 319 319 320 319 316 313
316 319 321 323 322 322 322 322 322 322 321 322 321 320 320 321 320 319 317 320 321 321 320 321 320 320 319 319 318 318 319 319 318 318 318 318 319 317 319 318 317 316 315
315 318 320 322 322 322 322 322 322 322 322 322 322 321 320 321 320 320 321 322 321 321 320 321 319 319 320 319 319 319 319 318 319 318 317 317 316 316 314 314 315 316 315
313 317 319 321 322 322 322 322 322 322 322 322 321 321 321 321 321 320 321 321 322 321 320 320 320 320 320 320 320 319 319 319 319 316 302 296 294 294 296 302 302 305 307
309 313 318 320 322 322 323 323 323 322 322 321 321 321 322 323 323 322 322 322 322 321 321 321 321 321 320 312 307 316 317 309 299 295 293 291 291 290 289 290 289 292 294
308 310 316 319 321 323 323 323 323 321 322 320 320 322 323 323 322 322 322 322 321 322 321 318 308 300 297 292 294 301 297 295 294 290 289 289 290 288 288 287 287 286 287
307 309 313 316 320 322 324 323 324 323 321 320 321 321 322 322 321 322 321 320 315 303 297 295 293 290 290 290 290 291 290 288 288 287 287 287 287 288 287 286 286 286 286
308 310 314 315 317 322 323 324 324 324 322 322 322 322 322 321 322 316 301 297 294 292 290 289 289 288 287 288 288 287 286 285 285 285 285 284 284 285 286 286 285 284 284
313 314 315 316 316 319 323 323 322 323 322 321 321 321 322 306 299 295 292 291 289 288 287 287 287 286 286 287 287 286 284 283 282 283 284 283 282 284 286 284 283 283 284
315 315 317 318 317 316 321 321 319 316 306 305 303 300 298 295 291 290 288 288 287 286 285 285 285 286 285 287 287 286 284 283 282 283 282 283 282 283 284 282 280 278 279
310 314 312 311 309 307 305 301 299 297 296 295 294 292 291 289 290 288 287 286 284 284 283 282 283 283 284 285 286 286 285 284 283 282 281 281 283 283 283 282 279 279 280
302 305 304 302 303 303 298 294 292 293 293 292 290 290 289 288 287 286 285 284 284 282 282 281 281 282 283 284 284 284 284 284 281 280 280 281 284 282 282 280 281 282 281
297 297 295 294 295 296 295 291 291 291 291 289 290 288 288 287 287 285 285 284 284 283 282 282 281 281 283 282 283 283 283 283 281 281 282 283 283 282 281 281 281 279 277
293 293 292 291 291 292 292 291 290 290 288 286 286 285 284 284 284 285 286 285 284 283 281 280 278 278 278 277 279 279 279 281 281 281 280 279 279 278 278 277 277 276 275
291 292 291 290 290 291 290 290 289 288 285 284 283 282 281 280 279 279 280 279 280 281 278 278 278 276 275 276 277 277 276 277 278 278 277 275 274 273 273 273 273 273 272
289 290 291 290 290 291 290 290 290 288 286 284 282 281 280 279 278 277 276 279 279 279 279 278 276 276 277 277 277 277 277 278 278 275 272 270 269 269 270 269 269 270 269

GFSMW_sfc_thetae_105.txt.gz
Theta_e
318 320 321 321 321 321 320 321 323 324 320 318 318 318 322 327 328 327 327 328 327 327 326 326 325 327 324 324 322 319 314 311 310 308 307 308 309 311 312 314 316 315 315
318 319 319 319 320 319 319 321 322 323 320 319 320 320 319 321 329 328 327 327 326 325 323 324 323 325 324 322 320 317 314 312 313 308 307 302 305 306 308 310 312 313 315
316 318 319 318 318 316 317 320 322 321 319 322 322 319 319 321 322 326 325 326 326 325 322 322 321 324 323 320 318 317 314 312 312 312 309 303 302 302 305 307 307 310 312
318 318 318 317 316 315 318 320 321 322 322 322 320 319 318 317 321 321 325 324 325 324 320 322 321 321 323 320 318 318 316 313 310 311 313 311 310 302 299 304 305 307 309
317 317 318 317 317 317 317 321 321 321 321 321 321 319 319 319 322 323 323 323 324 323 320 322 321 320 320 319 318 318 318 315 313 311 310 308 308 307 304 300 301 304 307
317 318 319 319 317 317 317 320 320 320 320 320 320 319 318 319 319 322 320 321 321 321 320 321 320 320 320 319 319 318 318 317 315 313 312 308 307 305 304 302 302 302 304
316 316 317 317 316 315 316 319 319 318 319 319 319 317 317 319 318 319 319 318 318 318 319 320 320 320 320 320 319 318 318 318 317 313 312 313 311 310 307 306 304 304 306
316 316 317 317 316 316 316 319 317 317 319 319 319 317 318 318 319 318 318 318 318 318 318 318 319 320 320 319 319 318 318 318 318 316 317 316 315 315 313 310 305 302 303
315 316 316 317 317 316 316 316 316 317 319 319 318 315 317 318 318 319 318 318 318 319 317 316 317 319 320 319 318 318 317 318 318 318 318 317 317 317 317 316 313 311 306
314 316 315 316 318 317 317 316 317 317 318 318 318 317 317 319 319 319 318 318 318 318 317 316 316 318 319 319 319 318 318 317 318 318 317 317 317 316 316 315 315 314 312
313 316 316 317 318 318 317 316 316 315 317 318 317 317 316 318 318 319 318 318 319 318 318 317 317 318 318 319 318 318 317 316 316 316 316 316 317 316 316 316 317 315 315
312 316 317 317 317 317 317 317 316 316 316 319 319 317 317 316 315 318 318 319 318 319 319 319 318 318 317 317 316 315 317 315 314 314 315 315 317 315 316 316 315 316 316
308 315 317 317 318 318 317 317 317 317 317 319 320 319 318 316 314 315 317 317 318 318 320 319 318 317 318 317 316 316 316 315 315 316 315 310 307 310 304 307 308 309 310
307 310 315 317 318 318 319 318 318 318 318 319 317 317 317 317 316 316 315 315 318 318 317 319 319 319 318 318 317 318 317 317 307 301 297 294 294 293 296 296 294 297 299
303 306 310 313 317 318 318 319 319 318 319 318 317 317 317 316 317 316 316 318 318 318 318 317 319 318 314 307 310 314 311 300 295 293 292 291 291 290 289 291 289 291 291
305 305 305 312 316 318 318 319 319 319 319 318 318 318 318 318 317 316 316 316 316 317 312 301 300 297 294 291 295 299 295 293 291 289 289 289 289 288 287 287 287 286 286
310 309 306 307 313 319 320 319 319 320 318 318 318 319 319 318 318 318 318 317 304 298 295 292 291 289 289 290 290 290 290 288 288 287 286 286 286 286 286 285 285 285 285
309 310 311 311 312 320 320 319 320 318 318 317 318 319 319 319 318 310 299 295 293 291 289 288 288 287 287 288 288 288 286 285 284 284 284 283 284 285 285 285 284 284 284
308 310 309 308 307 311 320 320 319 318 317 316 317 318 319 302 298 294 292 291 289 287 287 287 286 286 286 287 286 285 284 283 282 283 283 283 283 284 285 282 280 280 281
305 307 306 305 303 301 314 316 314 309 301 298 298 299 297 294 291 289 288 287 286 285 285 285 286 286 286 287 286 285 284 282 281 282 283 284 283 283 282 280 279 278 278
300 302 299 297 299 299 299 296 295 294 296 296 295 292 291 289 288 287 287 285 284 283 282 282 283 283 284 285 286 286 284 282 281 281 281 282 283 282 282 282 279 278 278
297 297 294 294 296 295 296 294 292 293 294 293 292 291 289 288 287 286 285 284 283 282 281 281 281 282 283 284 284 284 283 283 281 280 280 281 282 282 280 278 278 278 276
294 294 293 293 293 293 293 292 292 293 293 291 290 289 288 287 286 285 284 283 283 282 281 281 279 279 280 280 282 283 283 282 280 279 280 280 280 278 277 277 276 274 272
291 292 291 290 289 290 290 289 290 290 288 287 286 285 285 284 285 285 284 283 281 280 279 277 275 275 276 276 277 278 278 281 279 277 276 276 276 274 273 273 273 272 270
291 291 290 289 288 289 288 289 288 286 284 283 282 281 280 280 279 279 279 278 279 279 277 276 276 275 274 276 278 278 278 277 276 274 273 272 271 270 270 270 270 269 269
285 287 289 288 288 288 287 287 286 285 283 281 280 279 278 277 277 276 276 279 278 278 278 278 277 277 278 278 278 279 278 277 275 271 268 266 266 267 267 266 266 267 267

GFSMW_sfc_thetae_108.txt.gz
Theta_e
307 318 321 320 320 320 320 319 319 319 319 317 321 324 323 325 325 328 329 330 330 329 327 322 322 320 320 315 319 319 315 310 311 309 307 308 311 313 314 315 314 313 314
313 318 319 319 319 319 319 318 320 320 319 318 318 321 322 326 326 327 329 329 328 328 328 325 323 321 319 320 319 317 312 311 310 307 305 302 305 307 309 312 314 312 314
313 316 318 317 317 317 317 318 320 322 321 318 318 316 319 322 324 324 325 327 327 327 327 326 324 324 322 321 320 317 315 312 310 310 306 301 300 302 306 306 309 311 310
315 317 317 316 317 317 317 318 320 321 321 319 318 317 314 317 320 325 325 327 326 325 326 326 326 326 324 322 321 318 315 313 310 309 311 309 307 304 301 304 306 306 310
314 316 317 317 317 315 316 318 320 320 322 321 320 319 318 318 317 321 323 325 325 325 323 323 324 325 324 322 319 317 317 314 312 310 309 308 308 307 302 300 302 303 306
313 317 318 317 315 316 316 317 319 320 320 320 320 319 318 319 319 320 320 322 324 323 321 321 322 324 323 320 319 318 317 316 315 314 311 310 308 307 306 301 302 301 304
310 316 315 315 314 314 315 316 318 317 319 319 320 319 319 320 319 321 321 321 322 321 319 320 320 320 322 321 320 319 317 317 316 314 313 312 310 310 308 306 303 302 304
311 316 316 315 314 315 315 317 317 317 318 318 319 319 317 319 318 321 321 321 321 321 320 320 320 320 320 320 320 318 317 317 316 315 314 314 311 312 311 308 306 303 304
313 315 316 315 315 315 315 316 316 317 318 319 319 318 318 316 318 318 320 319 320 321 320 320 319 320 319 319 318 317 316 316 316 316 317 316 316 315 315 314 312 309 305
313 316 316 315 316 315 316 315 316 317 318 319 319 318 317 317 317 317 317 318 319 319 318 319 319 319 319 319 318 316 317 316 317 317 316 316 317 316 316 316 315 313 311
308 315 316 317 316 316 315 315 315 315 317 318 318 317 316 317 318 317 317 316 318 318 317 317 317 317 318 319 318 317 317 316 315 315 314 315 316 316 316 316 315 314 313
305 312 315 317 315 315 315 314 314 314 316 317 318 317 316 317 318 318 317 317 316 317 317 316 316 316 317 317 317 316 317 316 315 315 315 314 316 315 316 314 312 313 314
305 310 315 315 315 315 315 314 315 314 315 317 317 317 315 315 316 316 316 317 316 316 317 316 315 315 316 316 316 316 315 314 315 314 313 311 306 309 302 303 302 302 304
306 309 315 316 316 316 315 315 315 315 316 317 318 315 314 314 314 316 316 316 317 317 316 316 316 316 316 316 315 315 314 314 305 298 295 293 292 293 296 293 293 295 296
307 308 312 314 316 316 316 316 316 316 316 316 316 317 316 315 313 314 314 315 316 317 318 317 316 316 316 313 315 315 313 298 293 292 291 290 290 289 289 289 288 290 289
309 309 310 312 317 318 317 317 317 316 317 316 315 316 317 316 314 313 313 313 314 315 310 306 300 296 296 292 295 299 295 293 290 288 288 288 288 287 287 286 286 285 286
306 308 308 307 307 318 319 318 317 317 317 316 316 316 316 315 315 315 314 311 301 297 294 293 292 290 290 291 291 291 290 288 287 286 286 286 286 286 285 285 285 285 285
304 306 305 304 303 304 318 319 319 318 317 316 316 317 316 315 315 309 299 296 294 291 289 288 288 287 287 288 288 287 286 284 284 284 284 284 284 285 285 283 282 283 283
303 303 302 301 300 301 308 319 318 318 317 316 316 317 317 306 299 295 292 291 289 288 287 287 286 285 285 286 286 285 284 283 283 283 282 282 281 283 284 282 280 279 279
299 299 298 298 297 298 301 313 312 315 305 302 302 305 301 297 293 290 289 288 287 286 286 285 286 286 285 286 285 284 283 281 281 282 282 283 282 282 282 280 277 276 276
296 296 295 294 295 297 298 296 296 295 299 298 297 296 295 291 289 288 287 286 285 284 284 283 284 285 285 286 285 284 282 282 281 281 280 281 281 280 280 279 276 275 275
293 293 292 292 293 296 296 293 293 295 296 294 292 290 289 289 288 286 285 284 283 282 281 281 281 282 283 284 284 284 283 283 281 280 280 280 280 279 278 276 275 274 272
291 292 291 290 290 292 293 292 293 293 292 291 289 288 287 286 286 284 284 283 283 281 280 279 278 278 279 282 283 282 281 280 279 279 279 278 277 276 275 274 273 272 270
291 291 290 288 287 288 289 289 290 290 288 287 286 286 286 285 284 284 283 282 280 279 278 277 276 276 277 278 279 279 278 278 277 276 275 274 274 273 272 271 271 270 269
290 290 288 287 286 286 286 286 286 286 284 283 282 281 280 279 279 279 279 278 279 278 276 276 276 275 275 277 279 278 276 275 274 273 272 271 270 269 269 268 268 268 268
285 285 287 286 286 285 284 284 285 283 281 280 279 278 278 277 277 276 276 280 279 280 279 279 278 278 280 280 279 278 277 275 274 270 268 266 266 266 266 265 266 266 265